Time,TemperatureF,DewpointF,PressureIn,WindDirection,WindDirectionDegrees,WindSpeedMPH,WindSpeedGustMPH,Humidity,HourlyPrecipIn,Conditions,Clouds,dailyrainin,SoftwareType,DateUTC
2013-02-20 07:54:00,79.9,76.3,29.50,NNE,22,2.5,2.5,89,0.00,,,0.00,VWS V14.01,2013-02-19 21:54:00,
2013-02-20 07:55:00,79.9,76.3,29.50,NNE,22,2.5,2.5,89,0.00,,,0.04,VWS V14.01,2013-02-19 21:55:00,
2013-02-20 07:56:00,79.9,76.3,29.50,North,360,4.0,4.0,89,0.00,,,0.00,VWS V14.01,2013-02-19 21:56:00,
2013-02-20 07:57:00,80.1,76.5,29.50,NE,45,3.1,4.0,89,0.00,,,0.00,VWS V14.01,2013-02-19 21:57:00,
2013-02-20 07:58:00,80.1,76.5,29.50,NE,45,1.6,3.1,89,0.00,,,0.00,VWS V14.01,2013-02-19 21:58:00,
2013-02-20 07:59:00,80.1,76.5,29.50,NE,45,1.6,1.6,89,0.00,,,0.00,VWS V14.01,2013-02-19 21:59:00,
2013-02-20 08:00:00,80.1,76.5,29.50,NE,45,1.6,1.6,89,0.00,,,0.00,VWS V14.01,2013-02-19 22:00:00,
2013-02-20 08:01:00,80.2,76.7,29.50,NNE,22,0.0,2.7,89,0.00,,,0.00,VWS V14.01,2013-02-19 22:01:00,
2013-02-20 08:02:00,80.2,76.7,29.50,NNE,22,0.0,0.0,89,0.00,,,0.00,VWS V14.01,2013-02-19 22:02:00,
2013-02-20 08:03:00,80.2,76.7,29.50,NNE,22,3.4,3.4,89,0.00,,,0.00,VWS V14.01,2013-02-19 22:03:00,
2013-02-20 08:04:00,80.4,76.9,29.50,NNE,22,3.4,3.4,89,0.00,,,0.00,VWS V14.01,2013-02-19 22:04:00,
2013-02-20 08:05:00,80.4,76.9,29.50,NNE,22,3.4,3.4,89,0.00,,,0.00,VWS V14.01,2013-02-19 22:05:00,
2013-02-20 08:06:00,80.6,77.1,29.50,SSE,158,0.0,0.0,89,0.00,,,0.00,VWS V14.01,2013-02-19 22:06:00,
2013-02-20 08:07:00,80.6,77.1,29.50,NNE,22,2.0,2.0,89,0.00,,,0.00,VWS V14.01,2013-02-19 22:07:00,
2013-02-20 08:08:00,80.6,77.1,29.50,NNE,22,0.0,2.0,89,0.00,,,0.00,VWS V14.01,2013-02-19 22:08:00,
2013-02-20 08:09:00,80.6,77.1,29.50,NNE,22,0.0,0.0,89,0.00,,,0.00,VWS V14.01,2013-02-19 22:09:00,
2013-02-20 08:10:00,81.0,77.1,29.50,NE,45,0.0,0.0,88,0.00,,,0.00,VWS V14.01,2013-02-19 22:10:00,
2013-02-20 08:11:00,81.1,77.2,29.50,NE,45,0.0,0.0,88,0.00,,,0.00,VWS V14.01,2013-02-19 22:11:00,
2013-02-20 08:12:00,81.1,77.2,29.50,NE,45,0.0,0.0,88,0.00,,,0.00,VWS V14.01,2013-02-19 22:12:00,
2013-02-20 08:13:00,81.3,77.4,29.50,NE,45,0.0,0.0,88,0.00,,,0.00,VWS V14.01,2013-02-19 22:13:00,
2013-02-20 08:14:00,81.3,77.4,29.50,NE,45,0.0,0.0,88,0.00,,,0.00,VWS V14.01,2013-02-19 22:14:00,
2013-02-20 08:15:00,81.3,77.4,29.50,NE,45,0.0,0.0,88,0.00,,,0.00,VWS V14.01,2013-02-19 22:15:00,
2013-02-20 08:16:00,81.3,77.4,29.50,NE,45,0.0,0.0,88,0.00,,,0.00,VWS V14.01,2013-02-19 22:16:00,
2013-02-20 08:17:00,81.5,77.6,29.50,NE,45,0.0,0.0,88,0.00,,,0.00,VWS V14.01,2013-02-19 22:17:00,
2013-02-20 08:18:00,81.7,77.8,29.50,NE,45,0.0,0.0,88,0.00,,,0.00,VWS V14.01,2013-02-19 22:18:00,
2013-02-20 08:19:00,81.7,77.8,29.50,NE,45,0.0,0.0,88,0.00,,,0.00,VWS V14.01,2013-02-19 22:19:00,
2013-02-20 08:20:00,82.0,78.1,29.50,NE,45,0.0,0.0,88,0.00,,,0.00,VWS V14.01,2013-02-19 22:20:00,
2013-02-20 08:21:00,82.0,78.1,29.50,NE,45,0.0,0.0,88,0.00,,,0.00,VWS V14.01,2013-02-19 22:21:00,
2013-02-20 08:22:00,82.0,78.1,29.50,NE,45,0.0,0.0,88,0.00,,,0.00,VWS V14.01,2013-02-19 22:22:00,
2013-02-20 08:23:00,82.0,78.1,29.50,NE,45,0.0,0.0,88,0.00,,,0.00,VWS V14.01,2013-02-19 22:23:00,
2013-02-20 08:24:00,82.2,78.0,29.50,NNE,22,2.5,2.5,87,0.00,,,0.00,VWS V14.01,2013-02-19 22:24:00,
2013-02-20 08:25:00,82.4,78.1,29.50,NNE,22,0.0,2.5,87,0.00,,,0.00,VWS V14.01,2013-02-19 22:25:00,
2013-02-20 08:26:00,82.4,78.1,29.50,NNE,22,0.0,0.0,87,0.00,,,0.00,VWS V14.01,2013-02-19 22:26:00,
2013-02-20 08:27:00,82.6,78.3,29.50,NNE,22,2.0,2.0,87,0.00,,,0.00,VWS V14.01,2013-02-19 22:27:00,
2013-02-20 08:28:00,82.6,78.3,29.50,NE,45,0.0,2.0,87,0.00,,,0.00,VWS V14.01,2013-02-19 22:28:00,
2013-02-20 08:29:00,82.8,78.2,29.50,NE,45,1.1,1.1,86,0.00,,,0.00,VWS V14.01,2013-02-19 22:29:00,
2013-02-20 08:30:00,82.9,78.3,29.50,NE,45,2.7,2.7,86,0.00,,,0.00,VWS V14.01,2013-02-19 22:30:00,
2013-02-20 08:31:00,82.9,78.3,29.50,NE,45,0.9,2.7,86,0.00,,,0.00,VWS V14.01,2013-02-19 22:31:00,
2013-02-20 08:32:00,82.9,78.3,29.50,NE,45,0.9,0.9,86,0.00,,,0.00,VWS V14.01,2013-02-19 22:32:00,
2013-02-20 08:33:00,82.9,78.3,29.50,WSW,248,0.0,0.9,86,0.00,,,0.00,VWS V14.01,2013-02-19 22:33:00,
2013-02-20 08:34:00,82.9,78.3,29.50,WSW,248,0.0,0.0,86,0.00,,,0.00,VWS V14.01,2013-02-19 22:34:00,
2013-02-20 08:35:00,82.9,78.3,29.50,WSW,248,0.0,0.0,86,0.00,,,0.00,VWS V14.01,2013-02-19 22:35:00,
2013-02-20 08:36:00,82.9,78.0,29.50,WSW,248,0.0,0.0,85,0.00,,,0.00,VWS V14.01,2013-02-19 22:36:00,
2013-02-20 08:37:00,82.9,78.0,29.50,WSW,248,0.0,0.0,85,0.00,,,0.00,VWS V14.01,2013-02-19 22:37:00,
2013-02-20 08:38:00,83.3,78.3,29.50,NNE,22,0.0,0.0,85,0.00,,,0.00,VWS V14.01,2013-02-19 22:38:00,
2013-02-20 08:39:00,83.3,78.3,29.50,NE,45,0.0,0.0,85,0.00,,,0.00,VWS V14.01,2013-02-19 22:39:00,
2013-02-20 08:40:00,83.5,78.5,29.50,ESE,112,0.0,0.0,85,0.00,,,0.00,VWS V14.01,2013-02-19 22:40:00,
2013-02-20 08:41:00,83.7,78.7,29.50,ESE,112,1.3,1.3,85,0.00,,,0.00,VWS V14.01,2013-02-19 22:41:00,
2013-02-20 08:42:00,83.7,78.7,29.53,SE,135,2.7,2.7,85,0.00,,,0.00,VWS V14.01,2013-02-19 22:42:00,
2013-02-20 08:43:00,83.8,78.5,29.53,NE,45,2.7,2.7,84,0.00,,,0.00,VWS V14.01,2013-02-19 22:43:00,
2013-02-20 08:44:00,83.8,78.5,29.53,NE,45,0.0,2.7,84,0.00,,,0.00,VWS V14.01,2013-02-19 22:44:00,
2013-02-20 08:45:00,84.0,78.7,29.53,NE,45,0.0,0.0,84,0.00,,,0.00,VWS V14.01,2013-02-19 22:45:00,
2013-02-20 08:46:00,84.0,78.7,29.53,NE,45,0.0,0.0,84,0.00,,,0.00,VWS V14.01,2013-02-19 22:46:00,
2013-02-20 08:47:00,84.2,78.8,29.53,NNE,22,2.2,2.2,84,0.00,,,0.00,VWS V14.01,2013-02-19 22:47:00,
2013-02-20 08:48:00,84.0,79.0,29.53,NNE,22,0.0,2.2,85,0.00,,,0.00,VWS V14.01,2013-02-19 22:48:00,
2013-02-20 08:49:00,84.0,79.0,29.53,NNE,22,2.0,2.0,85,0.00,,,0.00,VWS V14.01,2013-02-19 22:49:00,
2013-02-20 08:50:00,84.0,79.0,29.53,NNE,22,2.0,2.0,85,0.00,,,0.00,VWS V14.01,2013-02-19 22:50:00,
2013-02-20 08:51:00,84.0,79.0,29.53,ENE,68,0.0,2.0,85,0.00,,,0.00,VWS V14.01,2013-02-19 22:51:00,
2013-02-20 08:52:00,84.0,79.0,29.53,SSE,158,2.7,2.7,85,0.00,,,0.00,VWS V14.01,2013-02-19 22:52:00,
2013-02-20 08:53:00,84.0,79.0,29.53,SE,135,2.7,2.7,85,0.00,,,0.00,VWS V14.01,2013-02-19 22:53:00,
2013-02-20 08:54:00,84.0,79.0,29.53,SE,135,2.7,2.7,85,0.00,,,0.00,VWS V14.01,2013-02-19 22:54:00,
2013-02-20 08:55:00,84.0,79.0,29.53,SE,135,2.7,2.7,85,0.00,,,0.00,VWS V14.01,2013-02-19 22:55:00,
2013-02-20 08:56:00,84.0,79.0,29.53,South,180,0.0,2.7,85,0.00,,,0.00,VWS V14.01,2013-02-19 22:56:00,
2013-02-20 08:57:00,84.6,78.8,29.50,North,360,1.3,1.3,83,0.00,,,0.00,VWS V14.01,2013-02-19 22:57:00,
2013-02-20 08:58:00,84.6,78.8,29.50,North,360,0.0,1.3,83,0.00,,,0.00,VWS V14.01,2013-02-19 22:58:00,
2013-02-20 08:59:00,84.7,79.0,29.50,NE,45,0.0,0.0,83,0.00,,,0.00,VWS V14.01,2013-02-19 22:59:00,
2013-02-20 09:00:00,84.9,79.2,29.50,ESE,112,2.0,2.7,83,0.00,,,0.00,VWS V14.01,2013-02-19 23:00:00,
2013-02-20 09:01:00,84.9,79.2,29.50,ESE,112,2.0,2.7,83,0.00,,,0.00,VWS V14.01,2013-02-19 23:01:00,
2013-02-20 09:02:00,84.9,79.2,29.50,East,90,0.0,2.0,83,0.00,,,0.00,VWS V14.01,2013-02-19 23:02:00,
2013-02-20 09:03:00,85.1,79.4,29.50,SE,135,2.0,2.0,83,0.00,,,0.00,VWS V14.01,2013-02-19 23:03:00,
2013-02-20 09:04:00,85.5,79.7,29.50,East,90,0.9,3.4,83,0.00,,,0.00,VWS V14.01,2013-02-19 23:04:00,
2013-02-20 09:05:00,85.6,79.9,29.50,North,360,2.7,2.7,83,0.00,,,0.00,VWS V14.01,2013-02-19 23:05:00,
2013-02-20 09:06:00,85.6,79.9,29.50,NE,45,1.3,2.7,83,0.00,,,0.00,VWS V14.01,2013-02-19 23:06:00,
2013-02-20 09:07:00,85.6,79.9,29.50,NE,45,4.0,4.0,83,0.00,,,0.00,VWS V14.01,2013-02-19 23:07:00,
2013-02-20 09:08:00,85.6,79.9,29.50,North,360,3.1,4.0,83,0.00,,,0.00,VWS V14.01,2013-02-19 23:08:00,
2013-02-20 09:09:00,85.6,79.9,29.50,North,360,3.1,3.1,83,0.00,,,0.00,VWS V14.01,2013-02-19 23:09:00,
2013-02-20 09:10:00,85.6,79.9,29.50,South,180,2.0,2.0,83,0.00,,,0.00,VWS V14.01,2013-02-19 23:10:00,
2013-02-20 09:11:00,85.6,79.5,29.50,NNE,22,2.9,2.9,82,0.00,,,0.00,VWS V14.01,2013-02-19 23:11:00,
2013-02-20 09:12:00,85.6,79.5,29.53,North,360,3.4,3.4,82,0.00,,,0.00,VWS V14.01,2013-02-19 23:12:00,
2013-02-20 09:13:00,85.8,79.7,29.53,NNE,22,0.9,3.4,82,0.00,,,0.00,VWS V14.01,2013-02-19 23:13:00,
2013-02-20 09:14:00,85.8,79.7,29.53,NNE,22,0.0,0.9,82,0.00,,,0.00,VWS V14.01,2013-02-19 23:14:00,
2013-02-20 09:15:00,86.0,79.5,29.53,East,90,2.7,2.7,81,0.00,,,0.00,VWS V14.01,2013-02-19 23:15:00,
2013-02-20 09:16:00,86.0,79.5,29.53,East,90,2.7,2.7,81,0.00,,,0.00,VWS V14.01,2013-02-19 23:16:00,
2013-02-20 09:17:00,86.4,79.8,29.53,East,90,2.9,2.9,81,0.00,,,0.00,VWS V14.01,2013-02-19 23:17:00,
2013-02-20 09:18:00,86.4,79.5,29.53,East,90,2.9,2.9,80,0.00,,,0.00,VWS V14.01,2013-02-19 23:18:00,
2013-02-20 09:19:00,86.4,79.5,29.53,NE,45,0.0,2.9,80,0.00,,,0.00,VWS V14.01,2013-02-19 23:19:00,
2013-02-20 09:20:00,86.2,79.3,29.53,NNE,22,2.2,2.2,80,0.00,,,0.00,VWS V14.01,2013-02-19 23:20:00,
2013-02-20 09:21:00,86.2,79.3,29.53,NNE,22,2.2,2.2,80,0.00,,,0.00,VWS V14.01,2013-02-19 23:21:00,
2013-02-20 09:22:00,86.4,79.8,29.53,North,360,0.0,2.7,81,0.00,,,0.00,VWS V14.01,2013-02-19 23:22:00,
2013-02-20 09:23:00,86.4,79.8,29.53,North,360,0.0,0.0,81,0.00,,,0.00,VWS V14.01,2013-02-19 23:23:00,
2013-02-20 09:24:00,86.4,79.8,29.53,East,90,2.5,2.5,81,0.00,,,0.00,VWS V14.01,2013-02-19 23:24:00,
2013-02-20 09:25:00,86.4,79.8,29.53,East,90,4.0,4.0,81,0.00,,,0.00,VWS V14.01,2013-02-19 23:25:00,
2013-02-20 09:26:00,86.9,79.6,29.53,East,90,4.0,4.0,79,0.00,,,0.00,VWS V14.01,2013-02-19 23:26:00,
2013-02-20 09:27:00,86.9,79.6,29.53,NE,45,0.0,4.0,79,0.00,,,0.00,VWS V14.01,2013-02-19 23:27:00,
2013-02-20 09:28:00,86.9,79.2,29.53,East,90,3.1,3.1,78,0.00,,,0.00,VWS V14.01,2013-02-19 23:28:00,
2013-02-20 09:29:00,86.9,79.2,29.53,East,90,0.0,3.1,78,0.00,,,0.00,VWS V14.01,2013-02-19 23:29:00,
2013-02-20 09:30:00,86.9,79.2,29.53,East,90,2.5,2.5,78,0.00,,,0.00,VWS V14.01,2013-02-19 23:30:00,
2013-02-20 09:31:00,86.9,79.2,29.53,East,90,2.5,2.5,78,0.00,,,0.00,VWS V14.01,2013-02-19 23:31:00,
2013-02-20 09:32:00,86.9,79.2,29.53,NE,45,0.0,2.5,78,0.00,,,0.00,VWS V14.01,2013-02-19 23:32:00,
2013-02-20 09:33:00,87.1,79.4,29.53,ESE,112,0.0,0.9,78,0.00,,,0.00,VWS V14.01,2013-02-19 23:33:00,
2013-02-20 09:34:00,87.1,79.4,29.53,ENE,68,1.6,1.6,78,0.00,,,0.00,VWS V14.01,2013-02-19 23:34:00,
2013-02-20 09:35:00,87.3,79.6,29.53,ENE,68,3.4,3.4,78,0.00,,,0.00,VWS V14.01,2013-02-19 23:35:00,
2013-02-20 09:36:00,87.3,79.6,29.53,ENE,68,3.4,3.4,78,0.00,,,0.00,VWS V14.01,2013-02-19 23:36:00,
2013-02-20 09:37:00,87.4,79.7,29.53,SE,135,3.6,3.6,78,0.00,,,0.00,VWS V14.01,2013-02-19 23:37:00,
2013-02-20 09:38:00,87.4,79.7,29.53,ENE,68,2.2,3.6,78,0.00,,,0.00,VWS V14.01,2013-02-19 23:38:00,
2013-02-20 09:39:00,87.4,79.7,29.53,East,90,1.1,2.2,78,0.00,,,0.00,VWS V14.01,2013-02-19 23:39:00,
2013-02-20 09:40:00,87.4,79.7,29.53,East,90,0.9,1.1,78,0.00,,,0.00,VWS V14.01,2013-02-19 23:40:00,
2013-02-20 09:41:00,87.6,79.5,29.53,NE,45,1.3,1.3,77,0.00,,,0.00,VWS V14.01,2013-02-19 23:41:00,
2013-02-20 09:42:00,87.4,78.9,29.50,ESE,112,0.0,1.3,76,0.00,,,0.00,VWS V14.01,2013-02-19 23:42:00,
2013-02-20 09:43:00,87.4,78.9,29.50,East,90,3.1,3.1,76,0.00,,,0.00,VWS V14.01,2013-02-19 23:43:00,
2013-02-20 09:44:00,87.4,78.9,29.50,NE,45,1.6,3.1,76,0.00,,,0.00,VWS V14.01,2013-02-19 23:44:00,
2013-02-20 09:45:00,87.6,79.5,29.50,ESE,112,4.7,4.7,77,0.00,,,0.00,VWS V14.01,2013-02-19 23:45:00,
2013-02-20 09:46:00,87.6,79.5,29.50,East,90,0.0,4.7,77,0.00,,,0.00,VWS V14.01,2013-02-19 23:46:00,
2013-02-20 09:47:00,87.6,79.5,29.50,NNE,22,3.1,3.1,77,0.00,,,0.00,VWS V14.01,2013-02-19 23:47:00,
2013-02-20 09:48:00,87.8,79.3,29.50,NNE,22,3.1,3.1,76,0.00,,,0.00,VWS V14.01,2013-02-19 23:48:00,
2013-02-20 09:49:00,87.8,79.3,29.50,East,90,2.7,3.1,76,0.00,,,0.00,VWS V14.01,2013-02-19 23:49:00,
2013-02-20 09:50:00,87.8,79.3,29.50,North,360,3.1,3.1,76,0.00,,,0.00,VWS V14.01,2013-02-19 23:50:00,
2013-02-20 09:51:00,87.8,79.3,29.50,NE,45,2.9,3.1,76,0.00,,,0.00,VWS V14.01,2013-02-19 23:51:00,
2013-02-20 09:52:00,87.8,78.9,29.50,SE,135,3.4,3.4,75,0.00,,,0.00,VWS V14.01,2013-02-19 23:52:00,
2013-02-20 09:53:00,87.8,78.9,29.50,East,90,0.9,3.4,75,0.00,,,0.00,VWS V14.01,2013-02-19 23:53:00,
2013-02-20 09:54:00,88.2,79.6,29.50,NE,45,0.0,0.9,76,0.00,,,0.00,VWS V14.01,2013-02-19 23:54:00,
2013-02-20 09:55:00,88.2,79.6,29.50,NE,45,0.0,0.0,76,0.00,,,0.00,VWS V14.01,2013-02-19 23:55:00,
2013-02-20 09:56:00,88.3,79.8,29.50,East,90,5.4,5.4,76,0.00,,,0.00,VWS V14.01,2013-02-19 23:56:00,
2013-02-20 09:57:00,88.3,79.8,29.50,NE,45,2.9,5.4,76,0.00,,,0.00,VWS V14.01,2013-02-19 23:57:00,
2013-02-20 09:58:00,88.3,79.8,29.50,East,90,1.6,2.9,76,0.00,,,0.00,VWS V14.01,2013-02-19 23:58:00,
2013-02-20 09:59:00,88.5,79.6,29.50,East,90,3.1,3.6,75,0.00,,,0.00,VWS V14.01,2013-02-19 23:59:00,
2013-02-20 10:00:00,88.5,79.6,29.50,East,90,3.1,3.1,75,0.00,,,0.00,VWS V14.01,2013-02-20 00:00:00,
2013-02-20 10:01:00,88.5,79.6,29.50,North,360,0.0,3.1,75,0.00,,,0.00,VWS V14.01,2013-02-20 00:01:00,
2013-02-20 10:02:00,88.5,79.6,29.50,NNE,22,4.0,4.0,75,0.00,,,0.00,VWS V14.01,2013-02-20 00:02:00,
2013-02-20 10:03:00,88.5,79.6,29.50,NE,45,2.9,4.0,75,0.00,,,0.00,VWS V14.01,2013-02-20 00:03:00,
2013-02-20 10:04:00,88.5,79.6,29.50,NE,45,2.9,2.9,75,0.00,,,0.00,VWS V14.01,2013-02-20 00:04:00,
2013-02-20 10:05:00,88.5,79.6,29.50,NE,45,2.9,2.9,75,0.00,,,0.00,VWS V14.01,2013-02-20 00:05:00,
2013-02-20 10:06:00,88.5,79.6,29.50,North,360,1.6,2.9,75,0.00,,,0.00,VWS V14.01,2013-02-20 00:06:00,
2013-02-20 10:07:00,88.5,79.6,29.50,North,360,4.0,4.0,75,0.00,,,0.00,VWS V14.01,2013-02-20 00:07:00,
2013-02-20 10:08:00,88.5,79.6,29.50,NE,45,2.7,5.6,75,0.00,,,0.00,VWS V14.01,2013-02-20 00:08:00,
2013-02-20 10:09:00,88.5,79.6,29.50,NNE,22,3.4,3.4,75,0.00,,,0.00,VWS V14.01,2013-02-20 00:09:00,
2013-02-20 10:10:00,88.5,79.6,29.50,NE,45,3.4,3.4,75,0.00,,,0.00,VWS V14.01,2013-02-20 00:10:00,
2013-02-20 10:11:00,88.9,79.1,29.50,East,90,5.8,5.8,73,0.00,,,0.00,VWS V14.01,2013-02-20 00:11:00,
2013-02-20 10:12:00,88.9,79.1,29.50,East,90,4.3,5.8,73,0.00,,,0.00,VWS V14.01,2013-02-20 00:12:00,
2013-02-20 10:13:00,89.2,79.4,29.50,East,90,3.1,4.3,73,0.00,,,0.00,VWS V14.01,2013-02-20 00:13:00,
2013-02-20 10:14:00,89.2,79.4,29.50,NNE,22,2.0,3.1,73,0.00,,,0.00,VWS V14.01,2013-02-20 00:14:00,
2013-02-20 10:15:00,89.2,79.4,29.50,SSE,158,2.7,2.7,73,0.00,,,0.00,VWS V14.01,2013-02-20 00:15:00,
2013-02-20 10:16:00,89.4,79.6,29.50,ESE,112,3.8,3.8,73,0.00,,,0.00,VWS V14.01,2013-02-20 00:16:00,
2013-02-20 10:17:00,89.4,79.6,29.50,SSE,158,4.7,4.7,73,0.00,,,0.00,VWS V14.01,2013-02-20 00:17:00,
2013-02-20 10:18:00,89.4,79.6,29.50,SE,135,2.9,4.7,73,0.00,,,0.00,VWS V14.01,2013-02-20 00:18:00,
2013-02-20 10:19:00,89.2,79.4,29.50,SE,135,2.9,2.9,73,0.00,,,0.00,VWS V14.01,2013-02-20 00:19:00,
2013-02-20 10:20:00,89.2,79.4,29.50,ESE,112,0.0,2.9,73,0.00,,,0.00,VWS V14.01,2013-02-20 00:20:00,
2013-02-20 10:21:00,89.2,79.4,29.50,ESE,112,0.0,0.0,73,0.00,,,0.00,VWS V14.01,2013-02-20 00:21:00,
2013-02-20 10:22:00,89.6,79.8,29.50,ESE,112,0.0,0.0,73,0.00,,,0.00,VWS V14.01,2013-02-20 00:22:00,
2013-02-20 10:23:00,89.6,79.8,29.50,NNE,22,1.6,1.6,73,0.00,,,0.00,VWS V14.01,2013-02-20 00:23:00,
2013-02-20 10:24:00,89.6,79.8,29.50,NNE,22,2.9,2.9,73,0.00,,,0.00,VWS V14.01,2013-02-20 00:24:00,
2013-02-20 10:25:00,89.6,79.8,29.50,NNE,22,2.9,2.9,73,0.00,,,0.00,VWS V14.01,2013-02-20 00:25:00,
2013-02-20 10:26:00,89.6,79.4,29.50,East,90,5.6,5.6,72,0.00,,,0.00,VWS V14.01,2013-02-20 00:26:00,
2013-02-20 10:27:00,89.6,79.4,29.50,East,90,5.6,5.6,72,0.00,,,0.00,VWS V14.01,2013-02-20 00:27:00,
2013-02-20 10:28:00,89.6,79.4,29.50,East,90,5.6,5.6,72,0.00,,,0.00,VWS V14.01,2013-02-20 00:28:00,
2013-02-20 10:29:00,89.6,79.4,29.50,ENE,68,0.0,5.6,72,0.00,,,0.00,VWS V14.01,2013-02-20 00:29:00,
2013-02-20 10:30:00,89.6,79.4,29.50,ENE,68,0.0,0.0,72,0.00,,,0.00,VWS V14.01,2013-02-20 00:30:00,
2013-02-20 10:31:00,89.6,79.4,29.50,NNE,22,0.0,0.0,72,0.00,,,0.00,VWS V14.01,2013-02-20 00:31:00,
2013-02-20 10:32:00,89.6,79.4,29.50,NNE,22,0.0,0.0,72,0.00,,,0.00,VWS V14.01,2013-02-20 00:32:00,
2013-02-20 10:33:00,89.6,79.4,29.50,NNE,22,0.0,0.0,72,0.00,,,0.00,VWS V14.01,2013-02-20 00:33:00,
2013-02-20 10:34:00,90.1,79.9,29.50,NNE,22,0.0,0.0,72,0.00,,,0.00,VWS V14.01,2013-02-20 00:34:00,
2013-02-20 10:35:00,90.1,79.9,29.50,ESE,112,3.6,3.6,72,0.00,,,0.00,VWS V14.01,2013-02-20 00:35:00,
2013-02-20 10:36:00,90.3,79.6,29.50,ESE,112,4.0,4.0,71,0.00,,,0.00,VWS V14.01,2013-02-20 00:36:00,
2013-02-20 10:37:00,90.3,79.6,29.50,ESE,112,4.0,4.0,71,0.00,,,0.00,VWS V14.01,2013-02-20 00:37:00,
2013-02-20 10:38:00,90.3,79.2,29.50,ESE,112,4.0,4.0,70,0.00,,,0.00,VWS V14.01,2013-02-20 00:38:00,
2013-02-20 10:39:00,90.3,79.2,29.50,ESE,112,4.0,4.0,70,0.00,,,0.00,VWS V14.01,2013-02-20 00:39:00,
2013-02-20 10:40:00,90.3,79.2,29.50,ESE,112,4.0,4.0,70,0.00,,,0.00,VWS V14.01,2013-02-20 00:40:00,
2013-02-20 10:41:00,90.3,79.2,29.50,ESE,112,0.0,0.0,70,0.00,,,0.00,VWS V14.01,2013-02-20 00:41:00,
2013-02-20 10:42:00,90.3,79.2,29.50,ESE,112,0.0,0.0,70,0.00,,,0.00,VWS V14.01,2013-02-20 00:42:00,
2013-02-20 10:43:00,90.1,78.6,29.50,East,90,0.0,0.0,69,0.00,,,0.00,VWS V14.01,2013-02-20 00:43:00,
2013-02-20 10:44:00,90.1,78.6,29.50,NNE,22,2.9,2.9,69,0.00,,,0.00,VWS V14.01,2013-02-20 00:44:00,
2013-02-20 10:45:00,90.3,78.8,29.50,NNE,22,1.1,2.9,69,0.00,,,0.00,VWS V14.01,2013-02-20 00:45:00,
2013-02-20 10:46:00,90.3,78.8,29.50,NNE,22,1.1,1.1,69,0.00,,,0.00,VWS V14.01,2013-02-20 00:46:00,
2013-02-20 10:47:00,90.3,78.8,29.50,NNE,22,1.1,1.1,69,0.00,,,0.00,VWS V14.01,2013-02-20 00:47:00,
2013-02-20 10:48:00,90.3,78.8,29.50,NNE,22,1.1,1.1,69,0.00,,,0.00,VWS V14.01,2013-02-20 00:48:00,
2013-02-20 10:49:00,90.3,78.8,29.50,East,90,3.1,3.1,69,0.00,,,0.00,VWS V14.01,2013-02-20 00:49:00,
2013-02-20 10:50:00,90.3,78.8,29.50,East,90,3.1,3.1,69,0.00,,,0.00,VWS V14.01,2013-02-20 00:50:00,
2013-02-20 10:51:00,90.7,79.6,29.50,East,90,3.1,3.1,70,0.00,,,0.00,VWS V14.01,2013-02-20 00:51:00,
2013-02-20 10:52:00,90.7,79.6,29.50,East,90,3.1,3.1,70,0.00,,,0.00,VWS V14.01,2013-02-20 00:52:00,
2013-02-20 10:53:00,90.7,79.6,29.50,ESE,112,6.0,6.0,70,0.00,,,0.00,VWS V14.01,2013-02-20 00:53:00,
2013-02-20 10:54:00,90.7,79.6,29.50,ESE,112,6.0,6.0,70,0.00,,,0.00,VWS V14.01,2013-02-20 00:54:00,
2013-02-20 10:55:00,90.7,79.6,29.50,ESE,112,6.0,6.0,70,0.00,,,0.00,VWS V14.01,2013-02-20 00:55:00,
2013-02-20 10:56:00,90.9,79.3,29.50,East,90,1.6,1.6,69,0.00,,,0.00,VWS V14.01,2013-02-20 00:56:00,
2013-02-20 10:57:00,90.9,79.3,29.50,East,90,1.6,1.6,69,0.00,,,0.00,VWS V14.01,2013-02-20 00:57:00,
2013-02-20 10:58:00,90.9,79.3,29.50,East,90,1.6,1.6,69,0.00,,,0.00,VWS V14.01,2013-02-20 00:58:00,
2013-02-20 10:59:00,91.0,79.5,29.50,NNE,22,5.6,5.6,69,0.00,,,0.00,VWS V14.01,2013-02-20 00:59:00,
2013-02-20 11:00:00,91.0,79.5,29.50,NNE,22,5.6,5.6,69,0.00,,,0.00,VWS V14.01,2013-02-20 01:00:00,
2013-02-20 11:01:00,91.0,79.5,29.50,NNE,22,5.6,5.6,69,0.00,,,0.00,VWS V14.01,2013-02-20 01:01:00,
2013-02-20 11:02:00,91.0,79.5,29.50,NNE,22,5.6,5.6,69,0.00,,,0.00,VWS V14.01,2013-02-20 01:02:00,
2013-02-20 11:03:00,91.0,79.5,29.50,NNE,22,5.6,5.6,69,0.00,,,0.00,VWS V14.01,2013-02-20 01:03:00,
2013-02-20 11:04:00,91.2,79.6,29.50,NE,45,1.3,5.6,69,0.00,,,0.00,VWS V14.01,2013-02-20 01:04:00,
2013-02-20 11:05:00,91.2,79.6,29.50,NE,45,1.3,1.3,69,0.00,,,0.00,VWS V14.01,2013-02-20 01:05:00,
2013-02-20 11:06:00,91.2,79.6,29.50,NE,45,1.3,1.3,69,0.00,,,0.00,VWS V14.01,2013-02-20 01:06:00,
2013-02-20 11:07:00,91.2,79.6,29.50,NE,45,1.3,1.3,69,0.00,,,0.00,VWS V14.01,2013-02-20 01:07:00,
2013-02-20 11:08:00,91.4,79.8,29.50,NE,45,0.0,6.0,69,0.00,,,0.00,VWS V14.01,2013-02-20 01:08:00,
2013-02-20 11:09:00,91.4,79.8,29.50,NNE,22,4.3,4.3,69,0.00,,,0.00,VWS V14.01,2013-02-20 01:09:00,
2013-02-20 11:10:00,91.4,78.4,29.50,NNE,22,4.3,4.3,66,0.00,,,0.00,VWS V14.01,2013-02-20 01:10:00,
2013-02-20 11:11:00,91.4,78.4,29.50,NNE,22,4.3,4.3,66,0.00,,,0.00,VWS V14.01,2013-02-20 01:11:00,
2013-02-20 11:12:00,91.4,78.4,29.50,NNE,22,4.3,4.3,66,0.00,,,0.00,VWS V14.01,2013-02-20 01:12:00,
2013-02-20 11:13:00,91.4,78.4,29.50,NNE,22,4.3,4.3,66,0.00,,,0.00,VWS V14.01,2013-02-20 01:13:00,
2013-02-20 11:14:00,91.4,78.4,29.50,NNE,22,4.3,4.3,66,0.00,,,0.00,VWS V14.01,2013-02-20 01:14:00,
2013-02-20 11:15:00,91.2,79.2,29.50,NNE,22,4.3,4.3,68,0.00,,,0.00,VWS V14.01,2013-02-20 01:15:00,
2013-02-20 11:16:00,91.6,79.5,29.50,North,360,4.3,4.3,68,0.00,,,0.00,VWS V14.01,2013-02-20 01:16:00,
2013-02-20 11:17:00,91.6,79.5,29.50,North,360,4.3,4.3,68,0.00,,,0.00,VWS V14.01,2013-02-20 01:17:00,
2013-02-20 11:18:00,91.6,79.5,29.50,East,90,5.4,5.4,68,0.00,,,0.00,VWS V14.01,2013-02-20 01:18:00,
2013-02-20 11:19:00,91.6,79.1,29.50,East,90,5.4,5.4,67,0.00,,,0.00,VWS V14.01,2013-02-20 01:19:00,
2013-02-20 11:20:00,91.8,79.7,29.50,East,90,2.0,5.4,68,0.00,,,0.00,VWS V14.01,2013-02-20 01:20:00,
2013-02-20 11:21:00,91.8,79.7,29.50,East,90,2.0,2.0,68,0.00,,,0.00,VWS V14.01,2013-02-20 01:21:00,
2013-02-20 11:22:00,91.9,79.0,29.50,ESE,112,2.9,2.9,66,0.00,,,0.00,VWS V14.01,2013-02-20 01:22:00,
2013-02-20 11:23:00,91.9,79.0,29.50,ESE,112,2.9,2.9,66,0.00,,,0.00,VWS V14.01,2013-02-20 01:23:00,
2013-02-20 11:24:00,92.1,79.6,29.50,NE,45,5.4,5.4,67,0.00,,,0.00,VWS V14.01,2013-02-20 01:24:00,
2013-02-20 11:25:00,92.1,79.6,29.50,East,90,0.0,5.4,67,0.00,,,0.00,VWS V14.01,2013-02-20 01:25:00,
2013-02-20 11:26:00,92.3,79.8,29.50,ENE,68,1.1,1.1,67,0.00,,,0.00,VWS V14.01,2013-02-20 01:26:00,
2013-02-20 11:27:00,92.1,79.6,29.50,East,90,0.0,1.1,67,0.00,,,0.00,VWS V14.01,2013-02-20 01:27:00,
2013-02-20 11:28:00,92.1,79.6,29.50,NE,45,2.5,2.5,67,0.00,,,0.00,VWS V14.01,2013-02-20 01:28:00,
2013-02-20 11:29:00,92.1,80.0,29.50,North,360,4.7,4.7,68,0.00,,,0.00,VWS V14.01,2013-02-20 01:29:00,
2013-02-20 11:30:00,92.1,80.0,29.50,ENE,68,3.1,4.7,68,0.00,,,0.00,VWS V14.01,2013-02-20 01:30:00,
2013-02-20 11:31:00,92.1,80.0,29.50,ENE,68,3.1,3.1,68,0.00,,,0.00,VWS V14.01,2013-02-20 01:31:00,
2013-02-20 11:32:00,91.8,79.7,29.50,NE,45,2.2,2.2,68,0.00,,,0.00,VWS V14.01,2013-02-20 01:32:00,
2013-02-20 11:33:00,91.8,79.7,29.50,NE,45,1.3,2.2,68,0.00,,,0.00,VWS V14.01,2013-02-20 01:33:00,
2013-02-20 11:34:00,91.2,79.6,29.50,NNE,22,6.7,6.7,69,0.00,,,0.00,VWS V14.01,2013-02-20 01:34:00,
2013-02-20 11:35:00,91.2,79.6,29.50,NE,45,1.1,6.7,69,0.00,,,0.00,VWS V14.01,2013-02-20 01:35:00,
2013-02-20 11:36:00,90.7,79.1,29.50,NE,45,3.4,3.4,69,0.00,,,0.00,VWS V14.01,2013-02-20 01:36:00,
2013-02-20 11:37:00,90.7,79.1,29.50,North,360,2.5,3.4,69,0.00,,,0.00,VWS V14.01,2013-02-20 01:37:00,
2013-02-20 11:38:00,90.7,79.1,29.50,NNE,22,2.9,2.9,69,0.00,,,0.00,VWS V14.01,2013-02-20 01:38:00,
2013-02-20 11:39:00,90.7,79.1,29.50,NNE,22,2.9,2.9,69,0.00,,,0.00,VWS V14.01,2013-02-20 01:39:00,
2013-02-20 11:40:00,90.7,79.1,29.50,NNE,22,2.9,2.9,69,0.00,,,0.00,VWS V14.01,2013-02-20 01:40:00,
2013-02-20 11:41:00,90.7,79.1,29.50,NNE,22,2.9,2.9,69,0.00,,,0.00,VWS V14.01,2013-02-20 01:41:00,
2013-02-20 11:42:00,90.7,79.1,29.50,NNE,22,2.9,2.9,69,0.00,,,0.00,VWS V14.01,2013-02-20 01:42:00,
2013-02-20 11:43:00,90.7,79.1,29.50,NNE,22,2.9,2.9,69,0.00,,,0.00,VWS V14.01,2013-02-20 01:43:00,
2013-02-20 11:44:00,90.7,79.1,29.50,NNE,22,2.9,2.9,69,0.00,,,0.00,VWS V14.01,2013-02-20 01:44:00,
2013-02-20 11:45:00,90.0,78.9,29.50,ENE,68,4.3,4.3,70,0.00,,,0.00,VWS V14.01,2013-02-20 01:45:00,
2013-02-20 11:46:00,90.0,78.9,29.50,ENE,68,4.3,4.3,70,0.00,,,0.00,VWS V14.01,2013-02-20 01:46:00,
2013-02-20 11:47:00,89.8,78.3,29.50,ENE,68,4.3,4.3,69,0.00,,,0.00,VWS V14.01,2013-02-20 01:47:00,
2013-02-20 11:48:00,89.8,78.3,29.50,ENE,68,4.3,4.3,69,0.00,,,0.00,VWS V14.01,2013-02-20 01:48:00,
2013-02-20 11:49:00,89.8,78.3,29.50,ENE,68,4.3,4.3,69,0.00,,,0.00,VWS V14.01,2013-02-20 01:49:00,
2013-02-20 11:50:00,89.8,78.7,29.50,NE,45,3.6,4.3,70,0.00,,,0.00,VWS V14.01,2013-02-20 01:50:00,
2013-02-20 11:51:00,89.8,78.7,29.50,NE,45,3.6,3.6,70,0.00,,,0.00,VWS V14.01,2013-02-20 01:51:00,
2013-02-20 11:52:00,89.8,78.7,29.50,NE,45,3.6,3.6,70,0.00,,,0.00,VWS V14.01,2013-02-20 01:52:00,
2013-02-20 11:53:00,89.8,78.7,29.50,NE,45,3.6,3.6,70,0.00,,,0.00,VWS V14.01,2013-02-20 01:53:00,
2013-02-20 11:54:00,89.8,78.7,29.50,NE,45,3.6,3.6,70,0.00,,,0.00,VWS V14.01,2013-02-20 01:54:00,
2013-02-20 11:55:00,89.8,78.7,29.50,NE,45,3.6,3.6,70,0.00,,,0.00,VWS V14.01,2013-02-20 01:55:00,
2013-02-20 11:56:00,89.8,78.7,29.50,NE,45,3.6,3.6,70,0.00,,,0.00,VWS V14.01,2013-02-20 01:56:00,
2013-02-20 11:57:00,89.8,78.7,29.50,NE,45,3.6,3.6,70,0.00,,,0.00,VWS V14.01,2013-02-20 01:57:00,
2013-02-20 11:58:00,89.8,78.7,29.50,NE,45,3.6,3.6,70,0.00,,,0.00,VWS V14.01,2013-02-20 01:58:00,
2013-02-20 11:59:00,89.6,78.5,29.50,NE,45,3.6,3.6,70,0.00,,,0.00,VWS V14.01,2013-02-20 01:59:00,
2013-02-20 12:00:00,89.6,78.5,29.50,NE,45,3.6,3.6,70,0.00,,,0.00,VWS V14.01,2013-02-20 02:00:00,
2013-02-20 12:01:00,89.8,78.7,29.50,NNE,22,2.5,3.6,70,0.00,,,0.00,VWS V14.01,2013-02-20 02:01:00,
2013-02-20 12:02:00,90.0,79.3,29.50,North,360,0.0,0.0,71,0.00,,,0.00,VWS V14.01,2013-02-20 02:02:00,
2013-02-20 12:03:00,90.0,79.3,29.50,North,360,0.0,0.0,71,0.00,,,0.00,VWS V14.01,2013-02-20 02:03:00,
2013-02-20 12:04:00,90.3,79.2,29.50,North,360,0.0,0.0,70,0.00,,,0.00,VWS V14.01,2013-02-20 02:04:00,
2013-02-20 12:05:00,90.3,79.2,29.50,North,360,0.0,0.0,70,0.00,,,0.00,VWS V14.01,2013-02-20 02:05:00,
2013-02-20 12:06:00,90.5,79.8,29.50,North,360,0.0,0.0,71,0.00,,,0.00,VWS V14.01,2013-02-20 02:06:00,
2013-02-20 12:07:00,90.5,79.8,29.50,North,360,0.0,0.0,71,0.00,,,0.00,VWS V14.01,2013-02-20 02:07:00,
2013-02-20 12:08:00,90.7,79.6,29.50,North,360,0.0,0.0,70,0.00,,,0.00,VWS V14.01,2013-02-20 02:08:00,
2013-02-20 12:09:00,90.7,79.6,29.50,North,360,0.0,0.0,70,0.00,,,0.00,VWS V14.01,2013-02-20 02:09:00,
2013-02-20 12:10:00,90.7,79.6,29.50,North,360,0.0,0.0,70,0.00,,,0.00,VWS V14.01,2013-02-20 02:10:00,
2013-02-20 12:11:00,90.7,79.6,29.50,North,360,0.0,0.0,70,0.00,,,0.00,VWS V14.01,2013-02-20 02:11:00,
2013-02-20 12:12:00,90.7,79.1,29.50,North,360,0.0,0.0,69,0.00,,,0.00,VWS V14.01,2013-02-20 02:12:00,
2013-02-20 12:13:00,90.7,79.1,29.47,North,360,0.0,0.0,69,0.00,,,0.00,VWS V14.01,2013-02-20 02:13:00,
2013-02-20 12:14:00,90.7,79.1,29.47,North,360,0.0,0.0,69,0.00,,,0.00,VWS V14.01,2013-02-20 02:14:00,
2013-02-20 12:15:00,91.0,79.9,29.47,North,360,0.0,0.0,70,0.00,,,0.00,VWS V14.01,2013-02-20 02:15:00,
2013-02-20 12:16:00,91.0,79.9,29.47,North,360,0.0,0.0,70,0.00,,,0.00,VWS V14.01,2013-02-20 02:16:00,
2013-02-20 12:17:00,91.0,79.9,29.47,North,360,0.0,0.0,70,0.00,,,0.00,VWS V14.01,2013-02-20 02:17:00,
2013-02-20 12:18:00,91.0,79.9,29.47,North,360,0.0,0.0,70,0.00,,,0.00,VWS V14.01,2013-02-20 02:18:00,
2013-02-20 12:19:00,91.0,79.9,29.47,North,360,0.0,0.0,70,0.00,,,0.00,VWS V14.01,2013-02-20 02:19:00,
2013-02-20 12:20:00,91.2,80.1,29.47,North,360,0.0,0.0,70,0.00,,,0.00,VWS V14.01,2013-02-20 02:20:00,
2013-02-20 12:21:00,91.2,80.1,29.47,North,360,0.0,0.0,70,0.00,,,0.00,VWS V14.01,2013-02-20 02:21:00,
2013-02-20 12:22:00,91.2,80.1,29.47,North,360,0.0,0.0,70,0.00,,,0.00,VWS V14.01,2013-02-20 02:22:00,
2013-02-20 12:23:00,91.2,80.1,29.47,North,360,0.0,0.0,70,0.00,,,0.00,VWS V14.01,2013-02-20 02:23:00,
2013-02-20 12:24:00,91.2,80.1,29.47,North,360,0.0,0.0,70,0.00,,,0.00,VWS V14.01,2013-02-20 02:24:00,
2013-02-20 12:25:00,91.2,80.1,29.47,North,360,0.0,0.0,70,0.00,,,0.00,VWS V14.01,2013-02-20 02:25:00,
2013-02-20 12:26:00,91.2,80.1,29.47,North,360,0.0,0.0,70,0.00,,,0.00,VWS V14.01,2013-02-20 02:26:00,
2013-02-20 12:27:00,91.2,80.1,29.47,North,360,0.0,0.0,70,0.00,,,0.00,VWS V14.01,2013-02-20 02:27:00,
2013-02-20 12:28:00,91.2,80.1,29.47,North,360,0.0,0.0,70,0.00,,,0.00,VWS V14.01,2013-02-20 02:28:00,
2013-02-20 12:29:00,91.2,80.1,29.47,North,360,0.0,0.0,70,0.00,,,0.00,VWS V14.01,2013-02-20 02:29:00,
2013-02-20 12:30:00,91.2,80.1,29.47,NE,45,2.0,2.0,70,0.00,,,0.00,VWS V14.01,2013-02-20 02:30:00,
2013-02-20 12:31:00,91.2,80.1,29.47,NE,45,2.0,2.0,70,0.00,,,0.00,VWS V14.01,2013-02-20 02:31:00,
2013-02-20 12:32:00,90.5,78.9,29.47,ENE,68,1.1,1.1,69,0.00,,,0.00,VWS V14.01,2013-02-20 02:32:00,
2013-02-20 12:33:00,90.5,78.9,29.47,ENE,68,1.1,1.1,69,0.00,,,0.00,VWS V14.01,2013-02-20 02:33:00,
2013-02-20 12:34:00,90.5,78.9,29.47,NE,45,0.0,1.1,69,0.00,,,0.00,VWS V14.01,2013-02-20 02:34:00,
2013-02-20 12:35:00,90.5,79.4,29.47,NE,45,0.0,0.0,70,0.00,,,0.00,VWS V14.01,2013-02-20 02:35:00,
2013-02-20 12:36:00,90.5,79.4,29.47,NE,45,0.0,0.0,70,0.00,,,0.00,VWS V14.01,2013-02-20 02:36:00,
2013-02-20 12:37:00,90.5,78.9,29.47,NE,45,0.0,0.0,69,0.00,,,0.00,VWS V14.01,2013-02-20 02:37:00,
2013-02-20 12:38:00,90.5,78.9,29.47,NE,45,0.0,0.0,69,0.00,,,0.00,VWS V14.01,2013-02-20 02:38:00,
2013-02-20 12:39:00,90.5,78.9,29.47,NNE,22,3.8,3.8,69,0.00,,,0.00,VWS V14.01,2013-02-20 02:39:00,
2013-02-20 12:40:00,90.5,78.9,29.47,North,360,6.3,6.3,69,0.00,,,0.00,VWS V14.01,2013-02-20 02:40:00,
2013-02-20 12:41:00,90.5,78.9,29.47,North,360,6.3,6.3,69,0.00,,,0.00,VWS V14.01,2013-02-20 02:41:00,
2013-02-20 12:42:00,90.5,78.9,29.47,North,360,6.3,6.3,69,0.00,,,0.00,VWS V14.01,2013-02-20 02:42:00,
2013-02-20 12:43:00,90.5,78.9,29.47,North,360,6.3,6.3,69,0.00,,,0.00,VWS V14.01,2013-02-20 02:43:00,
2013-02-20 12:44:00,90.5,78.9,29.47,North,360,6.3,6.3,69,0.00,,,0.00,VWS V14.01,2013-02-20 02:44:00,
2013-02-20 12:45:00,90.5,78.9,29.47,North,360,6.3,6.3,69,0.00,,,0.00,VWS V14.01,2013-02-20 02:45:00,
2013-02-20 12:46:00,90.5,78.9,29.47,North,360,6.3,6.3,69,0.00,,,0.00,VWS V14.01,2013-02-20 02:46:00,
2013-02-20 12:47:00,90.5,78.9,29.47,North,360,6.3,6.3,69,0.00,,,0.00,VWS V14.01,2013-02-20 02:47:00,
2013-02-20 12:48:00,90.5,78.9,29.47,North,360,6.3,6.3,69,0.00,,,0.00,VWS V14.01,2013-02-20 02:48:00,
2013-02-20 12:49:00,90.5,78.9,29.47,North,360,6.3,6.3,69,0.00,,,0.00,VWS V14.01,2013-02-20 02:49:00,
2013-02-20 12:50:00,90.5,78.9,29.47,NNW,338,0.9,6.3,69,0.00,,,0.00,VWS V14.01,2013-02-20 02:50:00,
2013-02-20 12:51:00,90.5,78.9,29.47,NNW,338,0.9,0.9,69,0.00,,,0.00,VWS V14.01,2013-02-20 02:51:00,
2013-02-20 12:52:00,90.5,78.9,29.47,NNW,338,0.9,0.9,69,0.00,,,0.00,VWS V14.01,2013-02-20 02:52:00,
2013-02-20 12:53:00,90.5,78.9,29.47,NNW,338,0.9,0.9,69,0.00,,,0.00,VWS V14.01,2013-02-20 02:53:00,
2013-02-20 12:54:00,90.5,78.9,29.47,NNW,338,0.9,0.9,69,0.00,,,0.00,VWS V14.01,2013-02-20 02:54:00,
2013-02-20 12:55:00,90.5,78.9,29.47,NNW,338,0.9,0.9,69,0.00,,,0.00,VWS V14.01,2013-02-20 02:55:00,
2013-02-20 12:56:00,90.5,78.9,29.47,NNW,338,0.9,0.9,69,0.00,,,0.00,VWS V14.01,2013-02-20 02:56:00,
2013-02-20 12:57:00,90.5,78.9,29.47,NNE,22,2.7,2.7,69,0.00,,,0.00,VWS V14.01,2013-02-20 02:57:00,
2013-02-20 12:58:00,90.5,78.9,29.47,NNE,22,2.7,2.7,69,0.00,,,0.00,VWS V14.01,2013-02-20 02:58:00,
2013-02-20 12:59:00,90.5,78.9,29.47,NNE,22,3.1,3.1,69,0.00,,,0.00,VWS V14.01,2013-02-20 02:59:00,
2013-02-20 13:00:00,90.5,78.9,29.47,NNE,22,6.3,6.3,69,0.00,,,0.00,VWS V14.01,2013-02-20 03:00:00,
2013-02-20 13:01:00,90.5,78.9,29.47,NNE,22,6.3,6.3,69,0.00,,,0.00,VWS V14.01,2013-02-20 03:01:00,
2013-02-20 13:02:00,90.5,78.9,29.47,NNE,22,6.3,6.3,69,0.00,,,0.00,VWS V14.01,2013-02-20 03:02:00,
2013-02-20 13:03:00,90.5,78.9,29.47,NNE,22,6.3,6.3,69,0.00,,,0.00,VWS V14.01,2013-02-20 03:03:00,
2013-02-20 13:04:00,90.5,78.9,29.47,NNE,22,6.3,6.3,69,0.00,,,0.00,VWS V14.01,2013-02-20 03:04:00,
2013-02-20 13:05:00,90.3,78.3,29.47,NNE,22,6.3,6.3,68,0.00,,,0.00,VWS V14.01,2013-02-20 03:05:00,
2013-02-20 13:06:00,90.3,78.3,29.47,NNE,22,1.3,6.3,68,0.00,,,0.00,VWS V14.01,2013-02-20 03:06:00,
2013-02-20 13:07:00,90.3,78.3,29.47,NNE,22,1.3,1.3,68,0.00,,,0.00,VWS V14.01,2013-02-20 03:07:00,
2013-02-20 13:08:00,90.3,78.3,29.47,NNE,22,1.3,1.3,68,0.00,,,0.00,VWS V14.01,2013-02-20 03:08:00,
2013-02-20 13:09:00,90.5,78.1,29.47,NNE,22,1.3,1.3,67,0.00,,,0.00,VWS V14.01,2013-02-20 03:09:00,
2013-02-20 13:10:00,90.5,78.1,29.47,NNE,22,1.6,1.6,67,0.00,,,0.00,VWS V14.01,2013-02-20 03:10:00,
2013-02-20 13:11:00,90.5,78.1,29.47,NNE,22,1.6,1.6,67,0.00,,,0.00,VWS V14.01,2013-02-20 03:11:00,
2013-02-20 13:12:00,90.5,78.1,29.47,NNE,22,1.6,1.6,67,0.00,,,0.00,VWS V14.01,2013-02-20 03:12:00,
2013-02-20 13:13:00,90.5,78.1,29.47,NE,45,0.9,1.6,67,0.00,,,0.00,VWS V14.01,2013-02-20 03:13:00,
2013-02-20 13:14:00,90.5,78.1,29.47,NW,315,2.9,4.3,67,0.00,,,0.00,VWS V14.01,2013-02-20 03:14:00,
2013-02-20 13:15:00,90.5,78.1,29.47,NW,315,2.9,2.9,67,0.00,,,0.00,VWS V14.01,2013-02-20 03:15:00,
2013-02-20 13:16:00,90.9,78.8,29.47,NW,315,2.9,2.9,68,0.00,,,0.00,VWS V14.01,2013-02-20 03:16:00,
2013-02-20 13:17:00,90.9,78.8,29.47,NW,315,2.9,2.9,68,0.00,,,0.00,VWS V14.01,2013-02-20 03:17:00,
2013-02-20 13:18:00,91.2,78.7,29.47,NW,315,2.5,2.5,67,0.00,,,0.00,VWS V14.01,2013-02-20 03:18:00,
2013-02-20 13:19:00,91.2,78.7,29.47,NE,45,4.0,4.0,67,0.00,,,0.00,VWS V14.01,2013-02-20 03:19:00,
2013-02-20 13:20:00,91.4,78.4,29.47,NE,45,4.0,4.0,66,0.00,,,0.00,VWS V14.01,2013-02-20 03:20:00,
2013-02-20 13:21:00,91.0,78.1,29.47,North,360,3.4,4.0,66,0.00,,,0.00,VWS V14.01,2013-02-20 03:21:00,
2013-02-20 13:22:00,91.0,78.1,29.47,NNE,22,2.9,3.4,66,0.00,,,0.00,VWS V14.01,2013-02-20 03:22:00,
2013-02-20 13:23:00,91.0,78.1,29.47,NNE,22,6.3,6.3,66,0.00,,,0.00,VWS V14.01,2013-02-20 03:23:00,
2013-02-20 13:24:00,91.0,78.1,29.47,NNE,22,6.3,6.3,66,0.00,,,0.00,VWS V14.01,2013-02-20 03:24:00,
2013-02-20 13:25:00,91.0,78.1,29.47,NNE,22,6.3,6.3,66,0.00,,,0.00,VWS V14.01,2013-02-20 03:25:00,
2013-02-20 13:26:00,91.0,78.1,29.47,NE,45,2.0,6.3,66,0.00,,,0.00,VWS V14.01,2013-02-20 03:26:00,
2013-02-20 13:27:00,91.0,78.1,29.44,NE,45,2.0,2.0,66,0.00,,,0.00,VWS V14.01,2013-02-20 03:27:00,
2013-02-20 13:28:00,91.0,78.1,29.44,NE,45,2.0,2.0,66,0.00,,,0.00,VWS V14.01,2013-02-20 03:28:00,
2013-02-20 13:29:00,91.0,78.1,29.44,NE,45,2.0,2.0,66,0.00,,,0.00,VWS V14.01,2013-02-20 03:29:00,
2013-02-20 13:30:00,91.0,78.1,29.44,NNE,22,1.6,4.9,66,0.00,,,0.00,VWS V14.01,2013-02-20 03:30:00,
2013-02-20 13:31:00,91.0,78.1,29.44,NNE,22,1.6,1.6,66,0.00,,,0.00,VWS V14.01,2013-02-20 03:31:00,
2013-02-20 13:32:00,91.0,78.1,29.44,NNE,22,4.7,4.7,66,0.00,,,0.00,VWS V14.01,2013-02-20 03:32:00,
2013-02-20 13:33:00,91.0,78.1,29.44,NNE,22,4.7,4.7,66,0.00,,,0.00,VWS V14.01,2013-02-20 03:33:00,
2013-02-20 13:34:00,91.0,78.1,29.44,North,360,0.0,4.7,66,0.00,,,0.00,VWS V14.01,2013-02-20 03:34:00,
2013-02-20 13:35:00,91.0,78.1,29.44,NE,45,0.0,0.0,66,0.00,,,0.00,VWS V14.01,2013-02-20 03:35:00,
2013-02-20 13:36:00,91.0,78.1,29.44,NE,45,0.0,0.0,66,0.00,,,0.00,VWS V14.01,2013-02-20 03:36:00,
2013-02-20 13:37:00,91.0,78.1,29.44,East,90,1.3,1.3,66,0.00,,,0.00,VWS V14.01,2013-02-20 03:37:00,
2013-02-20 13:38:00,91.0,78.1,29.44,East,90,1.3,1.3,66,0.00,,,0.00,VWS V14.01,2013-02-20 03:38:00,
2013-02-20 13:39:00,91.0,78.1,29.44,East,90,0.0,1.3,66,0.00,,,0.00,VWS V14.01,2013-02-20 03:39:00,
2013-02-20 13:40:00,91.0,78.6,29.44,South,180,2.2,2.9,67,0.00,,,0.00,VWS V14.01,2013-02-20 03:40:00,
2013-02-20 13:41:00,91.0,78.6,29.44,SSE,158,4.9,4.9,67,0.00,,,0.00,VWS V14.01,2013-02-20 03:41:00,
2013-02-20 13:42:00,91.0,78.6,29.44,SSE,158,4.9,4.9,67,0.00,,,0.00,VWS V14.01,2013-02-20 03:42:00,
2013-02-20 13:43:00,90.3,77.9,29.44,SW,225,6.5,6.5,67,0.00,,,0.00,VWS V14.01,2013-02-20 03:43:00,
2013-02-20 13:44:00,90.3,77.9,29.44,SW,225,6.5,6.5,67,0.00,,,0.00,VWS V14.01,2013-02-20 03:44:00,
2013-02-20 13:45:00,90.0,77.5,29.44,SSW,202,5.4,6.5,67,0.00,,,0.00,VWS V14.01,2013-02-20 03:45:00,
2013-02-20 13:46:00,90.0,77.5,29.44,SSW,202,5.4,5.4,67,0.00,,,0.00,VWS V14.01,2013-02-20 03:46:00,
2013-02-20 13:47:00,89.6,77.2,29.44,SSW,202,10.5,10.5,67,0.00,,,0.00,VWS V14.01,2013-02-20 03:47:00,
2013-02-20 13:48:00,89.1,77.1,29.44,SSW,202,10.5,10.5,68,0.00,,,0.00,VWS V14.01,2013-02-20 03:48:00,
2013-02-20 13:49:00,89.1,77.1,29.44,SSW,202,10.5,10.5,68,0.00,,,0.00,VWS V14.01,2013-02-20 03:49:00,
2013-02-20 13:50:00,88.7,76.8,29.44,SSW,202,10.5,10.5,68,0.00,,,0.00,VWS V14.01,2013-02-20 03:50:00,
2013-02-20 13:51:00,88.7,76.8,29.44,SSW,202,10.5,10.5,68,0.00,,,0.00,VWS V14.01,2013-02-20 03:51:00,
2013-02-20 13:52:00,88.3,76.4,29.44,SSW,202,10.5,10.5,68,0.00,,,0.00,VWS V14.01,2013-02-20 03:52:00,
2013-02-20 13:53:00,88.0,76.1,29.44,South,180,4.3,4.3,68,0.00,,,0.00,VWS V14.01,2013-02-20 03:53:00,
2013-02-20 13:54:00,88.0,76.1,29.44,South,180,4.3,4.3,68,0.00,,,0.00,VWS V14.01,2013-02-20 03:54:00,
2013-02-20 13:55:00,88.0,76.1,29.44,South,180,4.3,4.3,68,0.00,,,0.00,VWS V14.01,2013-02-20 03:55:00,
2013-02-20 13:56:00,87.8,75.9,29.44,SSW,202,6.0,6.0,68,0.00,,,0.00,VWS V14.01,2013-02-20 03:56:00,
2013-02-20 13:57:00,87.8,75.9,29.44,SW,225,4.3,6.0,68,0.00,,,0.00,VWS V14.01,2013-02-20 03:57:00,
2013-02-20 13:58:00,87.6,75.8,29.44,SSE,158,7.4,7.4,68,0.00,,,0.00,VWS V14.01,2013-02-20 03:58:00,
2013-02-20 13:59:00,87.6,76.2,29.44,South,180,4.7,7.4,69,0.00,,,0.00,VWS V14.01,2013-02-20 03:59:00,
2013-02-20 14:00:00,87.6,76.2,29.44,SSW,202,4.0,4.7,69,0.00,,,0.00,VWS V14.01,2013-02-20 04:00:00,
2013-02-20 14:01:00,87.6,76.2,29.44,South,180,6.5,6.5,69,0.00,,,0.00,VWS V14.01,2013-02-20 04:01:00,
2013-02-20 14:02:00,87.6,76.2,29.44,SSW,202,2.9,6.5,69,0.00,,,0.00,VWS V14.01,2013-02-20 04:02:00,
2013-02-20 14:03:00,87.6,76.2,29.44,SW,225,5.4,5.4,69,0.00,,,0.00,VWS V14.01,2013-02-20 04:03:00,
2013-02-20 14:04:00,87.6,76.2,29.44,SW,225,5.4,5.4,69,0.00,,,0.00,VWS V14.01,2013-02-20 04:04:00,
2013-02-20 14:05:00,87.4,76.0,29.44,SSE,158,6.0,6.0,69,0.00,,,0.00,VWS V14.01,2013-02-20 04:05:00,
2013-02-20 14:06:00,87.4,76.0,29.44,SSW,202,6.9,6.9,69,0.00,,,0.00,VWS V14.01,2013-02-20 04:06:00,
2013-02-20 14:07:00,87.4,76.0,29.44,South,180,3.1,6.9,69,0.00,,,0.00,VWS V14.01,2013-02-20 04:07:00,
2013-02-20 14:08:00,87.3,75.8,29.44,South,180,3.1,3.1,69,0.00,,,0.00,VWS V14.01,2013-02-20 04:08:00,
2013-02-20 14:09:00,87.3,75.8,29.44,South,180,3.4,3.4,69,0.00,,,0.00,VWS V14.01,2013-02-20 04:09:00,
2013-02-20 14:10:00,87.6,76.2,29.44,South,180,3.4,3.4,69,0.00,,,0.00,VWS V14.01,2013-02-20 04:10:00,
2013-02-20 14:11:00,87.6,76.2,29.44,South,180,3.4,3.4,69,0.00,,,0.00,VWS V14.01,2013-02-20 04:11:00,
2013-02-20 14:12:00,88.0,76.5,29.44,South,180,3.4,3.4,69,0.00,,,0.00,VWS V14.01,2013-02-20 04:12:00,
2013-02-20 14:13:00,88.2,76.3,29.44,SSE,158,5.8,5.8,68,0.00,,,0.00,VWS V14.01,2013-02-20 04:13:00,
2013-02-20 14:14:00,88.2,76.3,29.44,SSE,158,5.8,5.8,68,0.00,,,0.00,VWS V14.01,2013-02-20 04:14:00,
2013-02-20 14:15:00,88.2,76.7,29.44,SSE,158,2.9,5.8,69,0.00,,,0.00,VWS V14.01,2013-02-20 04:15:00,
2013-02-20 14:16:00,88.2,76.7,29.44,SW,225,3.1,3.1,69,0.00,,,0.00,VWS V14.01,2013-02-20 04:16:00,
2013-02-20 14:17:00,88.2,76.7,29.44,SW,225,3.1,3.1,69,0.00,,,0.00,VWS V14.01,2013-02-20 04:17:00,
2013-02-20 14:18:00,88.2,76.7,29.44,SW,225,3.1,3.1,69,0.00,,,0.00,VWS V14.01,2013-02-20 04:18:00,
2013-02-20 14:19:00,88.2,76.7,29.44,SW,225,3.1,3.1,69,0.00,,,0.00,VWS V14.01,2013-02-20 04:19:00,
2013-02-20 14:20:00,88.2,76.7,29.44,SSE,158,6.5,6.5,69,0.00,,,0.00,VWS V14.01,2013-02-20 04:20:00,
2013-02-20 14:21:00,88.2,76.7,29.44,SSE,158,6.5,6.5,69,0.00,,,0.00,VWS V14.01,2013-02-20 04:21:00,
2013-02-20 14:22:00,88.7,76.8,29.44,SSE,158,6.5,6.5,68,0.00,,,0.00,VWS V14.01,2013-02-20 04:22:00,
2013-02-20 14:23:00,88.7,76.8,29.44,SSE,158,6.5,6.5,68,0.00,,,0.00,VWS V14.01,2013-02-20 04:23:00,
2013-02-20 14:24:00,88.9,77.0,29.44,SSE,158,6.5,6.5,68,0.00,,,0.00,VWS V14.01,2013-02-20 04:24:00,
2013-02-20 14:25:00,88.9,77.0,29.44,SSE,158,6.5,6.5,68,0.00,,,0.00,VWS V14.01,2013-02-20 04:25:00,
2013-02-20 14:26:00,89.1,77.1,29.44,SSW,202,2.9,6.5,68,0.00,,,0.00,VWS V14.01,2013-02-20 04:26:00,
2013-02-20 14:27:00,89.1,77.1,29.44,SSE,158,3.6,3.6,68,0.00,,,0.00,VWS V14.01,2013-02-20 04:27:00,
2013-02-20 14:28:00,89.4,77.9,29.44,SSE,158,3.6,3.6,69,0.00,,,0.00,VWS V14.01,2013-02-20 04:28:00,
2013-02-20 14:29:00,89.6,77.6,29.44,SSE,158,3.6,3.6,68,0.00,,,0.00,VWS V14.01,2013-02-20 04:29:00,
2013-02-20 14:30:00,89.6,77.6,29.44,SSW,202,5.6,5.6,68,0.00,,,0.00,VWS V14.01,2013-02-20 04:30:00,
2013-02-20 14:31:00,89.4,77.5,29.44,SSW,202,7.8,7.8,68,0.00,,,0.00,VWS V14.01,2013-02-20 04:31:00,
2013-02-20 14:32:00,89.4,77.5,29.44,SSW,202,7.8,7.8,68,0.00,,,0.00,VWS V14.01,2013-02-20 04:32:00,
2013-02-20 14:33:00,89.2,77.3,29.44,WSW,248,1.6,7.8,68,0.00,,,0.00,VWS V14.01,2013-02-20 04:33:00,
2013-02-20 14:34:00,89.2,77.3,29.44,WSW,248,1.6,1.6,68,0.00,,,0.00,VWS V14.01,2013-02-20 04:34:00,
2013-02-20 14:35:00,89.4,77.5,29.44,SW,225,4.0,4.0,68,0.00,,,0.00,VWS V14.01,2013-02-20 04:35:00,
2013-02-20 14:36:00,89.6,77.6,29.44,WSW,248,4.0,4.0,68,0.00,,,0.00,VWS V14.01,2013-02-20 04:36:00,
2013-02-20 14:37:00,89.6,77.6,29.44,SW,225,3.6,4.0,68,0.00,,,0.00,VWS V14.01,2013-02-20 04:37:00,
2013-02-20 14:38:00,89.8,77.8,29.44,SW,225,2.5,3.6,68,0.00,,,0.00,VWS V14.01,2013-02-20 04:38:00,
2013-02-20 14:39:00,89.8,77.8,29.44,SW,225,1.3,2.5,68,0.00,,,0.00,VWS V14.01,2013-02-20 04:39:00,
2013-02-20 14:40:00,90.1,78.2,29.44,SSW,202,1.6,1.6,68,0.00,,,0.00,VWS V14.01,2013-02-20 04:40:00,
2013-02-20 14:41:00,90.1,78.2,29.44,SSW,202,1.3,1.6,68,0.00,,,0.00,VWS V14.01,2013-02-20 04:41:00,
2013-02-20 14:42:00,90.5,78.1,29.44,SSW,202,1.3,1.3,67,0.00,,,0.00,VWS V14.01,2013-02-20 04:42:00,
2013-02-20 14:43:00,90.3,77.9,29.44,SW,225,1.6,1.6,67,0.00,,,0.00,VWS V14.01,2013-02-20 04:43:00,
2013-02-20 14:44:00,90.3,77.9,29.44,WSW,248,0.0,1.6,67,0.00,,,0.00,VWS V14.01,2013-02-20 04:44:00,
2013-02-20 14:45:00,90.5,78.1,29.44,WNW,292,0.9,1.3,67,0.00,,,0.00,VWS V14.01,2013-02-20 04:45:00,
2013-02-20 14:46:00,90.5,78.1,29.44,ESE,112,2.7,2.7,67,0.00,,,0.00,VWS V14.01,2013-02-20 04:46:00,
2013-02-20 14:47:00,90.3,77.9,29.44,South,180,2.0,2.7,67,0.00,,,0.00,VWS V14.01,2013-02-20 04:47:00,
2013-02-20 14:48:00,90.3,77.9,29.44,SW,225,4.3,4.3,67,0.00,,,0.00,VWS V14.01,2013-02-20 04:48:00,
2013-02-20 14:49:00,90.1,77.2,29.44,SW,225,0.0,4.3,66,0.00,,,0.00,VWS V14.01,2013-02-20 04:49:00,
2013-02-20 14:50:00,90.1,77.2,29.44,SSW,202,1.6,1.6,66,0.00,,,0.00,VWS V14.01,2013-02-20 04:50:00,
2013-02-20 14:51:00,90.1,77.7,29.44,SW,225,3.6,3.6,67,0.00,,,0.00,VWS V14.01,2013-02-20 04:51:00,
2013-02-20 14:52:00,90.3,77.9,29.44,SSE,158,3.6,3.6,67,0.00,,,0.00,VWS V14.01,2013-02-20 04:52:00,
2013-02-20 14:53:00,90.3,77.9,29.44,South,180,4.0,4.0,67,0.00,,,0.00,VWS V14.01,2013-02-20 04:53:00,
2013-02-20 14:54:00,90.3,77.9,29.44,SSE,158,2.9,4.0,67,0.00,,,0.00,VWS V14.01,2013-02-20 04:54:00,
2013-02-20 14:55:00,90.3,77.9,29.44,SSE,158,2.0,2.9,67,0.00,,,0.00,VWS V14.01,2013-02-20 04:55:00,
2013-02-20 14:56:00,90.3,77.9,29.44,South,180,3.1,3.1,67,0.00,,,0.00,VWS V14.01,2013-02-20 04:56:00,
2013-02-20 14:57:00,90.3,77.9,29.41,SE,135,2.0,3.1,67,0.00,,,0.00,VWS V14.01,2013-02-20 04:57:00,
2013-02-20 14:58:00,90.5,77.6,29.41,SSE,158,1.1,2.0,66,0.00,,,0.00,VWS V14.01,2013-02-20 04:58:00,
2013-02-20 14:59:00,90.7,78.2,29.41,SW,225,2.0,2.0,67,0.00,,,0.00,VWS V14.01,2013-02-20 04:59:00,
2013-02-20 15:00:00,90.7,78.2,29.41,SW,225,0.0,2.0,67,0.00,,,0.00,VWS V14.01,2013-02-20 05:00:00,
2013-02-20 15:01:00,90.7,78.2,29.41,SW,225,0.0,0.0,67,0.00,,,0.00,VWS V14.01,2013-02-20 05:01:00,
2013-02-20 15:02:00,90.7,78.2,29.41,SW,225,0.0,0.0,67,0.00,,,0.00,VWS V14.01,2013-02-20 05:02:00,
2013-02-20 15:03:00,90.7,77.8,29.41,WSW,248,1.1,1.3,66,0.00,,,0.00,VWS V14.01,2013-02-20 05:03:00,
2013-02-20 15:04:00,90.7,77.8,29.41,SE,135,1.1,1.1,66,0.00,,,0.00,VWS V14.01,2013-02-20 05:04:00,
2013-02-20 15:05:00,90.9,78.4,29.41,ESE,112,2.5,2.5,67,0.00,,,0.00,VWS V14.01,2013-02-20 05:05:00,
2013-02-20 15:06:00,91.0,78.6,29.41,East,90,0.0,2.5,67,0.00,,,0.00,VWS V14.01,2013-02-20 05:06:00,
2013-02-20 15:07:00,91.0,78.6,29.41,ESE,112,2.0,2.0,67,0.00,,,0.00,VWS V14.01,2013-02-20 05:07:00,
2013-02-20 15:08:00,91.0,78.6,29.41,SSE,158,2.9,2.9,67,0.00,,,0.00,VWS V14.01,2013-02-20 05:08:00,
2013-02-20 15:09:00,91.0,78.6,29.41,SSE,158,2.9,2.9,67,0.00,,,0.00,VWS V14.01,2013-02-20 05:09:00,
2013-02-20 15:10:00,91.2,78.7,29.41,ENE,68,3.8,3.8,67,0.00,,,0.00,VWS V14.01,2013-02-20 05:10:00,
2013-02-20 15:11:00,91.2,78.7,29.41,ENE,68,3.8,3.8,67,0.00,,,0.00,VWS V14.01,2013-02-20 05:11:00,
2013-02-20 15:12:00,91.2,78.7,29.41,East,90,0.0,0.0,67,0.00,,,0.00,VWS V14.01,2013-02-20 05:12:00,
2013-02-20 15:13:00,91.2,78.7,29.41,East,90,1.1,1.1,67,0.00,,,0.00,VWS V14.01,2013-02-20 05:13:00,
2013-02-20 15:14:00,91.2,78.7,29.41,East,90,1.1,1.1,67,0.00,,,0.00,VWS V14.01,2013-02-20 05:14:00,
2013-02-20 15:15:00,91.0,78.1,29.41,ENE,68,1.3,1.3,66,0.00,,,0.00,VWS V14.01,2013-02-20 05:15:00,
2013-02-20 15:16:00,91.0,78.1,29.41,ENE,68,1.3,1.3,66,0.00,,,0.00,VWS V14.01,2013-02-20 05:16:00,
2013-02-20 15:17:00,90.7,77.8,29.41,East,90,3.1,3.1,66,0.00,,,0.00,VWS V14.01,2013-02-20 05:17:00,
2013-02-20 15:18:00,90.7,77.8,29.41,East,90,0.0,3.1,66,0.00,,,0.00,VWS V14.01,2013-02-20 05:18:00,
2013-02-20 15:19:00,90.7,77.8,29.41,SE,135,3.1,3.1,66,0.00,,,0.00,VWS V14.01,2013-02-20 05:19:00,
2013-02-20 15:20:00,90.7,77.8,29.41,SE,135,3.1,3.1,66,0.00,,,0.00,VWS V14.01,2013-02-20 05:20:00,
2013-02-20 15:21:00,90.9,77.9,29.41,ESE,112,4.0,4.0,66,0.00,,,0.00,VWS V14.01,2013-02-20 05:21:00,
2013-02-20 15:22:00,91.0,78.6,29.41,East,90,2.9,2.9,67,0.00,,,0.00,VWS V14.01,2013-02-20 05:22:00,
2013-02-20 15:23:00,91.0,78.6,29.41,East,90,2.9,2.9,67,0.00,,,0.00,VWS V14.01,2013-02-20 05:23:00,
2013-02-20 15:24:00,91.0,78.1,29.41,East,90,2.9,2.9,66,0.00,,,0.00,VWS V14.01,2013-02-20 05:24:00,
2013-02-20 15:25:00,91.0,78.1,29.41,ESE,112,1.6,2.9,66,0.00,,,0.00,VWS V14.01,2013-02-20 05:25:00,
2013-02-20 15:26:00,91.0,78.1,29.41,ESE,112,2.0,2.0,66,0.00,,,0.00,VWS V14.01,2013-02-20 05:26:00,
2013-02-20 15:27:00,90.7,77.8,29.41,SE,135,4.3,4.3,66,0.00,,,0.00,VWS V14.01,2013-02-20 05:27:00,
2013-02-20 15:28:00,90.7,77.8,29.41,East,90,0.9,4.3,66,0.00,,,0.00,VWS V14.01,2013-02-20 05:28:00,
2013-02-20 15:29:00,90.7,77.8,29.41,East,90,3.1,3.1,66,0.00,,,0.00,VWS V14.01,2013-02-20 05:29:00,
2013-02-20 15:30:00,90.7,77.8,29.41,SE,135,2.0,3.1,66,0.00,,,0.00,VWS V14.01,2013-02-20 05:30:00,
2013-02-20 15:31:00,90.7,77.8,29.41,SE,135,2.0,2.0,66,0.00,,,0.00,VWS V14.01,2013-02-20 05:31:00,
2013-02-20 15:32:00,90.7,77.8,29.41,SE,135,2.0,2.0,66,0.00,,,0.00,VWS V14.01,2013-02-20 05:32:00,
2013-02-20 15:33:00,90.7,77.8,29.41,SE,135,2.0,2.0,66,0.00,,,0.00,VWS V14.01,2013-02-20 05:33:00,
2013-02-20 15:34:00,90.7,77.8,29.41,SE,135,2.0,2.0,66,0.00,,,0.00,VWS V14.01,2013-02-20 05:34:00,
2013-02-20 15:35:00,90.9,77.9,29.41,SE,135,2.0,2.0,66,0.00,,,0.00,VWS V14.01,2013-02-20 05:35:00,
2013-02-20 15:36:00,90.9,77.9,29.41,SE,135,2.0,2.0,66,0.00,,,0.00,VWS V14.01,2013-02-20 05:36:00,
2013-02-20 15:37:00,90.9,77.9,29.41,SSE,158,1.1,2.0,66,0.00,,,0.00,VWS V14.01,2013-02-20 05:37:00,
2013-02-20 15:38:00,90.9,77.9,29.41,SSE,158,1.1,2.0,66,0.00,,,0.00,VWS V14.01,2013-02-20 05:38:00,
2013-02-20 15:39:00,90.9,77.9,29.41,SSE,158,1.1,1.1,66,0.00,,,0.00,VWS V14.01,2013-02-20 05:39:00,
2013-02-20 15:40:00,90.9,77.9,29.41,SSE,158,1.1,1.1,66,0.00,,,0.00,VWS V14.01,2013-02-20 05:40:00,
2013-02-20 15:41:00,90.9,77.9,29.41,SSE,158,1.1,1.1,66,0.00,,,0.00,VWS V14.01,2013-02-20 05:41:00,
2013-02-20 15:42:00,90.7,77.8,29.41,SSE,158,1.1,1.1,66,0.00,,,0.00,VWS V14.01,2013-02-20 05:42:00,
2013-02-20 15:43:00,90.7,77.8,29.41,SSE,158,1.1,1.1,66,0.00,,,0.00,VWS V14.01,2013-02-20 05:43:00,
2013-02-20 15:44:00,90.5,77.6,29.41,SSE,158,1.1,1.1,66,0.00,,,0.00,VWS V14.01,2013-02-20 05:44:00,
2013-02-20 15:45:00,90.5,77.6,29.41,SSE,158,1.1,1.1,66,0.00,,,0.00,VWS V14.01,2013-02-20 05:45:00,
2013-02-20 15:46:00,90.5,77.6,29.41,SSE,158,1.1,1.1,66,0.00,,,0.00,VWS V14.01,2013-02-20 05:46:00,
2013-02-20 15:47:00,90.5,77.6,29.41,SSE,158,1.1,1.1,66,0.00,,,0.00,VWS V14.01,2013-02-20 05:47:00,
2013-02-20 15:48:00,90.5,77.6,29.41,SSE,158,1.1,1.1,66,0.00,,,0.00,VWS V14.01,2013-02-20 05:48:00,
2013-02-20 15:49:00,90.5,77.6,29.41,SSE,158,1.1,1.1,66,0.00,,,0.00,VWS V14.01,2013-02-20 05:49:00,
2013-02-20 15:50:00,90.5,77.6,29.41,SSE,158,1.1,1.1,66,0.00,,,0.00,VWS V14.01,2013-02-20 05:50:00,
2013-02-20 15:51:00,90.5,77.6,29.41,SSE,158,1.1,1.1,66,0.00,,,0.00,VWS V14.01,2013-02-20 05:51:00,
2013-02-20 15:52:00,90.5,77.6,29.41,SSE,158,1.1,1.1,66,0.00,,,0.00,VWS V14.01,2013-02-20 05:52:00,
2013-02-20 15:53:00,90.5,77.6,29.41,SSE,158,1.1,1.1,66,0.00,,,0.00,VWS V14.01,2013-02-20 05:53:00,
2013-02-20 15:54:00,90.5,78.1,29.41,NE,45,0.0,1.1,67,0.00,,,0.00,VWS V14.01,2013-02-20 05:54:00,
2013-02-20 15:55:00,90.5,78.1,29.41,NE,45,0.0,0.0,67,0.00,,,0.00,VWS V14.01,2013-02-20 05:55:00,
2013-02-20 15:56:00,90.5,78.1,29.41,NE,45,0.0,0.0,67,0.00,,,0.00,VWS V14.01,2013-02-20 05:56:00,
2013-02-20 15:57:00,90.5,78.1,29.41,NE,45,1.1,1.1,67,0.00,,,0.00,VWS V14.01,2013-02-20 05:57:00,
2013-02-20 15:58:00,90.5,78.1,29.41,NE,45,1.1,1.1,67,0.00,,,0.00,VWS V14.01,2013-02-20 05:58:00,
2013-02-20 15:59:00,90.5,78.1,29.41,ESE,112,0.0,1.1,67,0.00,,,0.00,VWS V14.01,2013-02-20 05:59:00,
2013-02-20 16:00:00,90.5,78.1,29.41,ESE,112,1.6,1.6,67,0.00,,,0.00,VWS V14.01,2013-02-20 06:00:00,
2013-02-20 16:01:00,90.1,77.2,29.41,ESE,112,1.6,1.6,66,0.00,,,0.00,VWS V14.01,2013-02-20 06:01:00,
2013-02-20 16:02:00,90.1,77.2,29.41,East,90,2.5,2.5,66,0.00,,,0.00,VWS V14.01,2013-02-20 06:02:00,
2013-02-20 16:03:00,90.3,77.4,29.41,East,90,2.5,2.5,66,0.00,,,0.00,VWS V14.01,2013-02-20 06:03:00,
2013-02-20 16:04:00,90.3,77.4,29.41,East,90,2.5,2.5,66,0.00,,,0.00,VWS V14.01,2013-02-20 06:04:00,
2013-02-20 16:05:00,90.1,77.2,29.41,East,90,2.5,2.5,66,0.00,,,0.00,VWS V14.01,2013-02-20 06:05:00,
2013-02-20 16:06:00,90.1,77.2,29.41,East,90,2.5,2.5,66,0.00,,,0.00,VWS V14.01,2013-02-20 06:06:00,
2013-02-20 16:07:00,90.3,77.4,29.41,SE,135,2.7,2.7,66,0.00,,,0.00,VWS V14.01,2013-02-20 06:07:00,
2013-02-20 16:08:00,90.1,77.2,29.41,SE,135,2.7,2.7,66,0.00,,,0.00,VWS V14.01,2013-02-20 06:08:00,
2013-02-20 16:09:00,90.1,77.2,29.41,SE,135,0.9,0.9,66,0.00,,,0.00,VWS V14.01,2013-02-20 06:09:00,
2013-02-20 16:10:00,90.1,77.2,29.41,SE,135,0.9,0.9,66,0.00,,,0.00,VWS V14.01,2013-02-20 06:10:00,
2013-02-20 16:11:00,90.1,77.2,29.41,SE,135,1.1,1.1,66,0.00,,,0.00,VWS V14.01,2013-02-20 06:11:00,
2013-02-20 16:12:00,90.1,77.2,29.41,SE,135,2.5,2.5,66,0.00,,,0.00,VWS V14.01,2013-02-20 06:12:00,
2013-02-20 16:13:00,90.1,77.2,29.41,SE,135,2.5,2.5,66,0.00,,,0.00,VWS V14.01,2013-02-20 06:13:00,
2013-02-20 16:14:00,90.1,77.2,29.41,SE,135,2.5,2.5,66,0.00,,,0.00,VWS V14.01,2013-02-20 06:14:00,
2013-02-20 16:15:00,90.1,77.2,29.41,SE,135,2.5,2.5,66,0.00,,,0.00,VWS V14.01,2013-02-20 06:15:00,
2013-02-20 16:16:00,90.1,77.2,29.41,SE,135,2.5,2.5,66,0.00,,,0.00,VWS V14.01,2013-02-20 06:16:00,
2013-02-20 16:17:00,90.1,77.2,29.41,SE,135,2.5,2.5,66,0.00,,,0.00,VWS V14.01,2013-02-20 06:17:00,
2013-02-20 16:18:00,90.1,77.2,29.41,SE,135,2.5,2.5,66,0.00,,,0.00,VWS V14.01,2013-02-20 06:18:00,
2013-02-20 16:19:00,90.1,77.2,29.41,SE,135,2.5,2.5,66,0.00,,,0.00,VWS V14.01,2013-02-20 06:19:00,
2013-02-20 16:20:00,90.1,77.2,29.41,SE,135,2.5,2.5,66,0.00,,,0.00,VWS V14.01,2013-02-20 06:20:00,
2013-02-20 16:21:00,90.1,77.7,29.41,East,90,0.0,2.5,67,0.00,,,0.00,VWS V14.01,2013-02-20 06:21:00,
2013-02-20 16:22:00,90.1,77.2,29.41,East,90,0.0,0.0,66,0.00,,,0.00,VWS V14.01,2013-02-20 06:22:00,
2013-02-20 16:23:00,90.1,77.2,29.41,East,90,0.0,0.0,66,0.00,,,0.00,VWS V14.01,2013-02-20 06:23:00,
2013-02-20 16:24:00,90.1,77.2,29.41,East,90,0.0,0.0,66,0.00,,,0.00,VWS V14.01,2013-02-20 06:24:00,
2013-02-20 16:25:00,90.1,77.2,29.41,East,90,2.2,2.2,66,0.00,,,0.00,VWS V14.01,2013-02-20 06:25:00,
2013-02-20 16:26:00,90.1,77.2,29.41,East,90,2.2,2.2,66,0.00,,,0.00,VWS V14.01,2013-02-20 06:26:00,
2013-02-20 16:27:00,90.1,77.2,29.41,East,90,2.2,2.2,66,0.00,,,0.00,VWS V14.01,2013-02-20 06:27:00,
2013-02-20 16:28:00,90.1,77.2,29.41,SE,135,2.9,2.9,66,0.00,,,0.00,VWS V14.01,2013-02-20 06:28:00,
2013-02-20 16:29:00,90.1,77.2,29.41,SE,135,2.9,2.9,66,0.00,,,0.00,VWS V14.01,2013-02-20 06:29:00,
2013-02-20 16:30:00,90.1,77.2,29.41,SE,135,2.9,2.9,66,0.00,,,0.00,VWS V14.01,2013-02-20 06:30:00,
2013-02-20 16:31:00,90.1,77.2,29.41,SE,135,2.9,2.9,66,0.00,,,0.00,VWS V14.01,2013-02-20 06:31:00,
2013-02-20 16:32:00,90.1,77.2,29.41,ENE,68,0.0,2.9,66,0.00,,,0.00,VWS V14.01,2013-02-20 06:32:00,
2013-02-20 16:33:00,90.1,77.2,29.41,ENE,68,0.0,0.0,66,0.00,,,0.00,VWS V14.01,2013-02-20 06:33:00,
2013-02-20 16:34:00,90.1,77.2,29.41,ENE,68,0.0,0.0,66,0.00,,,0.00,VWS V14.01,2013-02-20 06:34:00,
2013-02-20 16:35:00,90.1,77.2,29.41,ENE,68,0.0,0.0,66,0.00,,,0.00,VWS V14.01,2013-02-20 06:35:00,
2013-02-20 16:36:00,90.1,77.2,29.41,ENE,68,0.0,0.0,66,0.00,,,0.00,VWS V14.01,2013-02-20 06:36:00,
2013-02-20 16:37:00,90.0,77.1,29.41,ENE,68,0.0,0.0,66,0.00,,,0.00,VWS V14.01,2013-02-20 06:37:00,
2013-02-20 16:38:00,90.0,77.1,29.41,SE,135,0.0,0.0,66,0.00,,,0.00,VWS V14.01,2013-02-20 06:38:00,
2013-02-20 16:39:00,90.0,77.1,29.41,SE,135,0.0,0.0,66,0.00,,,0.00,VWS V14.01,2013-02-20 06:39:00,
2013-02-20 16:40:00,90.0,77.1,29.41,SE,135,3.1,3.1,66,0.00,,,0.00,VWS V14.01,2013-02-20 06:40:00,
2013-02-20 16:41:00,90.0,77.1,29.41,SSE,158,3.6,3.6,66,0.00,,,0.00,VWS V14.01,2013-02-20 06:41:00,
2013-02-20 16:42:00,89.6,77.2,29.41,SE,135,3.6,3.6,67,0.00,,,0.00,VWS V14.01,2013-02-20 06:42:00,
2013-02-20 16:43:00,89.2,77.3,29.41,SSW,202,3.4,3.4,68,0.00,,,0.00,VWS V14.01,2013-02-20 06:43:00,
2013-02-20 16:44:00,89.2,77.3,29.41,SSW,202,0.0,3.4,68,0.00,,,0.00,VWS V14.01,2013-02-20 06:44:00,
2013-02-20 16:45:00,89.2,77.3,29.41,SSW,202,0.0,0.0,68,0.00,,,0.00,VWS V14.01,2013-02-20 06:45:00,
2013-02-20 16:46:00,89.2,77.3,29.41,South,180,3.6,3.6,68,0.00,,,0.00,VWS V14.01,2013-02-20 06:46:00,
2013-02-20 16:47:00,89.2,77.3,29.41,SSE,158,2.7,3.6,68,0.00,,,0.00,VWS V14.01,2013-02-20 06:47:00,
2013-02-20 16:48:00,89.2,77.3,29.41,SE,135,0.0,2.7,68,0.00,,,0.00,VWS V14.01,2013-02-20 06:48:00,
2013-02-20 16:49:00,89.2,77.3,29.41,SSE,158,2.2,2.2,68,0.00,,,0.00,VWS V14.01,2013-02-20 06:49:00,
2013-02-20 16:50:00,89.2,77.3,29.41,SSE,158,2.2,2.2,68,0.00,,,0.00,VWS V14.01,2013-02-20 06:50:00,
2013-02-20 16:51:00,89.2,77.3,29.41,SE,135,0.0,2.2,68,0.00,,,0.00,VWS V14.01,2013-02-20 06:51:00,
2013-02-20 16:52:00,89.2,77.7,29.41,NNE,22,2.2,2.2,69,0.00,,,0.00,VWS V14.01,2013-02-20 06:52:00,
2013-02-20 16:53:00,89.2,77.7,29.41,NNE,22,2.2,2.2,69,0.00,,,0.00,VWS V14.01,2013-02-20 06:53:00,
2013-02-20 16:54:00,89.1,77.1,29.41,East,90,0.0,2.2,68,0.00,,,0.00,VWS V14.01,2013-02-20 06:54:00,
2013-02-20 16:55:00,89.1,77.1,29.41,NNE,22,0.0,0.0,68,0.00,,,0.00,VWS V14.01,2013-02-20 06:55:00,
2013-02-20 16:56:00,89.1,77.1,29.41,ENE,68,0.0,0.0,68,0.00,,,0.00,VWS V14.01,2013-02-20 06:56:00,
2013-02-20 16:57:00,89.1,77.1,29.41,NE,45,2.5,2.5,68,0.00,,,0.00,VWS V14.01,2013-02-20 06:57:00,
2013-02-20 16:58:00,89.1,77.1,29.41,SE,135,0.0,2.5,68,0.00,,,0.00,VWS V14.01,2013-02-20 06:58:00,
2013-02-20 16:59:00,89.1,77.1,29.41,East,90,0.0,0.0,68,0.00,,,0.00,VWS V14.01,2013-02-20 06:59:00,
2013-02-20 17:00:00,88.9,77.4,29.41,NNE,22,0.9,0.9,69,0.00,,,0.00,VWS V14.01,2013-02-20 07:00:00,
2013-02-20 17:01:00,88.9,77.4,29.41,NNE,22,2.7,2.7,69,0.00,,,0.00,VWS V14.01,2013-02-20 07:01:00,
2013-02-20 17:02:00,88.9,77.4,29.41,NNE,22,0.9,2.7,69,0.00,,,0.00,VWS V14.01,2013-02-20 07:02:00,
2013-02-20 17:03:00,88.9,77.4,29.41,NE,45,0.0,0.0,69,0.00,,,0.00,VWS V14.01,2013-02-20 07:03:00,
2013-02-20 17:04:00,88.9,77.4,29.41,NE,45,0.0,0.0,69,0.00,,,0.00,VWS V14.01,2013-02-20 07:04:00,
2013-02-20 17:05:00,88.9,77.4,29.41,East,90,0.0,0.0,69,0.00,,,0.00,VWS V14.01,2013-02-20 07:05:00,
2013-02-20 17:06:00,88.9,77.4,29.41,East,90,0.0,0.0,69,0.00,,,0.00,VWS V14.01,2013-02-20 07:06:00,
2013-02-20 17:07:00,88.7,77.2,29.41,ESE,112,0.0,0.0,69,0.00,,,0.00,VWS V14.01,2013-02-20 07:07:00,
2013-02-20 17:08:00,88.7,77.2,29.41,SE,135,0.0,0.0,69,0.00,,,0.00,VWS V14.01,2013-02-20 07:08:00,
2013-02-20 17:09:00,88.7,77.2,29.41,SE,135,0.0,0.0,69,0.00,,,0.00,VWS V14.01,2013-02-20 07:09:00,
2013-02-20 17:10:00,88.5,77.5,29.41,SE,135,0.0,0.0,70,0.00,,,0.00,VWS V14.01,2013-02-20 07:10:00,
2013-02-20 17:11:00,88.5,77.5,29.41,SE,135,0.0,0.0,70,0.00,,,0.00,VWS V14.01,2013-02-20 07:11:00,
2013-02-20 17:12:00,88.5,77.5,29.41,SE,135,0.0,0.0,70,0.00,,,0.00,VWS V14.01,2013-02-20 07:12:00,
2013-02-20 17:13:00,88.3,77.3,29.41,SE,135,0.0,0.0,70,0.00,,,0.00,VWS V14.01,2013-02-20 07:13:00,
2013-02-20 17:14:00,88.3,77.3,29.41,SE,135,0.0,0.0,70,0.00,,,0.00,VWS V14.01,2013-02-20 07:14:00,
2013-02-20 17:15:00,88.3,77.3,29.41,SE,135,0.0,0.0,70,0.00,,,0.00,VWS V14.01,2013-02-20 07:15:00,
2013-02-20 17:16:00,88.3,77.3,29.41,SE,135,0.0,0.0,70,0.00,,,0.00,VWS V14.01,2013-02-20 07:16:00,
2013-02-20 17:17:00,88.3,77.8,29.41,SE,135,0.0,0.0,71,0.00,,,0.00,VWS V14.01,2013-02-20 07:17:00,
2013-02-20 17:18:00,88.3,77.8,29.41,SE,135,0.0,0.0,71,0.00,,,0.00,VWS V14.01,2013-02-20 07:18:00,
2013-02-20 17:19:00,88.3,77.8,29.41,SE,135,0.0,0.0,71,0.00,,,0.00,VWS V14.01,2013-02-20 07:19:00,
2013-02-20 17:20:00,88.3,77.8,29.41,SE,135,0.0,0.0,71,0.00,,,0.00,VWS V14.01,2013-02-20 07:20:00,
2013-02-20 17:21:00,88.3,77.8,29.41,SE,135,0.0,0.0,71,0.00,,,0.00,VWS V14.01,2013-02-20 07:21:00,
2013-02-20 17:22:00,88.3,77.8,29.41,NNE,22,0.0,0.0,71,0.00,,,0.00,VWS V14.01,2013-02-20 07:22:00,
2013-02-20 17:23:00,88.3,77.3,29.41,NNE,22,0.0,0.0,70,0.00,,,0.00,VWS V14.01,2013-02-20 07:23:00,
2013-02-20 17:24:00,88.3,77.3,29.41,NNE,22,0.0,0.0,70,0.00,,,0.00,VWS V14.01,2013-02-20 07:24:00,
2013-02-20 17:25:00,88.3,77.3,29.41,NNE,22,0.0,0.0,70,0.00,,,0.00,VWS V14.01,2013-02-20 07:25:00,
2013-02-20 17:26:00,88.3,77.8,29.41,NNE,22,0.0,0.0,71,0.00,,,0.00,VWS V14.01,2013-02-20 07:26:00,
2013-02-20 17:27:00,88.3,77.8,29.41,North,360,0.0,0.0,71,0.00,,,0.00,VWS V14.01,2013-02-20 07:27:00,
2013-02-20 17:28:00,88.3,77.8,29.41,North,360,0.0,0.0,71,0.00,,,0.00,VWS V14.01,2013-02-20 07:28:00,
2013-02-20 17:29:00,88.3,77.8,29.41,North,360,0.0,0.0,71,0.00,,,0.00,VWS V14.01,2013-02-20 07:29:00,
2013-02-20 17:30:00,88.3,77.8,29.41,North,360,0.0,0.0,71,0.00,,,0.00,VWS V14.01,2013-02-20 07:30:00,
2013-02-20 17:31:00,88.2,77.2,29.41,NW,315,1.1,1.1,70,0.00,,,0.00,VWS V14.01,2013-02-20 07:31:00,
2013-02-20 17:32:00,88.2,77.2,29.41,NW,315,0.0,1.1,70,0.00,,,0.00,VWS V14.01,2013-02-20 07:32:00,
2013-02-20 17:33:00,88.0,77.4,29.41,WNW,292,0.0,0.0,71,0.00,,,0.00,VWS V14.01,2013-02-20 07:33:00,
2013-02-20 17:34:00,88.0,77.4,29.41,NW,315,1.3,1.3,71,0.00,,,0.00,VWS V14.01,2013-02-20 07:34:00,
2013-02-20 17:35:00,88.0,77.0,29.41,NNW,338,1.1,1.3,70,0.00,,,0.00,VWS V14.01,2013-02-20 07:35:00,
2013-02-20 17:36:00,88.0,77.0,29.41,NNW,338,0.0,1.1,70,0.00,,,0.00,VWS V14.01,2013-02-20 07:36:00,
2013-02-20 17:37:00,88.0,77.0,29.41,NNW,338,0.0,0.0,70,0.00,,,0.00,VWS V14.01,2013-02-20 07:37:00,
2013-02-20 17:38:00,88.0,77.0,29.41,NNW,338,0.0,0.0,70,0.00,,,0.00,VWS V14.01,2013-02-20 07:38:00,
2013-02-20 17:39:00,88.0,77.0,29.41,North,360,0.0,0.0,70,0.00,,,0.00,VWS V14.01,2013-02-20 07:39:00,
2013-02-20 17:40:00,88.0,77.4,29.41,NNW,338,2.2,2.2,71,0.00,,,0.00,VWS V14.01,2013-02-20 07:40:00,
2013-02-20 17:41:00,88.0,77.4,29.41,NW,315,2.7,2.7,71,0.00,,,0.00,VWS V14.01,2013-02-20 07:41:00,
2013-02-20 17:43:00,87.8,77.2,29.41,NW,315,1.6,2.7,71,0.00,,,0.00,VWS V14.01,2013-02-20 07:43:00,
2013-02-20 17:44:00,87.6,77.5,29.44,NW,315,0.0,1.6,72,0.00,,,0.00,VWS V14.01,2013-02-20 07:44:00,
2013-02-20 17:45:00,87.6,77.5,29.44,NNW,338,0.0,2.0,72,0.00,,,0.00,VWS V14.01,2013-02-20 07:45:00,
2013-02-20 17:46:00,87.6,77.5,29.44,North,360,0.0,0.0,72,0.00,,,0.00,VWS V14.01,2013-02-20 07:46:00,
2013-02-20 17:47:00,87.6,77.5,29.44,NNW,338,2.0,2.0,72,0.00,,,0.00,VWS V14.01,2013-02-20 07:47:00,
2013-02-20 17:48:00,87.6,77.5,29.44,NNW,338,2.0,2.0,72,0.00,,,0.00,VWS V14.01,2013-02-20 07:48:00,
2013-02-20 17:49:00,87.6,77.5,29.44,NNW,338,0.0,2.0,72,0.00,,,0.00,VWS V14.01,2013-02-20 07:49:00,
2013-02-20 17:50:00,87.6,77.5,29.44,NW,315,0.0,0.0,72,0.00,,,0.00,VWS V14.01,2013-02-20 07:50:00,
2013-02-20 17:51:00,87.6,77.5,29.44,NNW,338,0.9,0.9,72,0.00,,,0.00,VWS V14.01,2013-02-20 07:51:00,
2013-02-20 17:52:00,87.6,77.5,29.44,NW,315,0.0,0.9,72,0.00,,,0.00,VWS V14.01,2013-02-20 07:52:00,
2013-02-20 17:53:00,87.6,77.5,29.44,NW,315,0.0,0.0,72,0.00,,,0.00,VWS V14.01,2013-02-20 07:53:00,
2013-02-20 17:54:00,87.6,77.5,29.44,NW,315,0.0,0.0,72,0.00,,,0.00,VWS V14.01,2013-02-20 07:54:00,
2013-02-20 17:55:00,87.6,77.5,29.44,NNW,338,3.1,3.1,72,0.00,,,0.00,VWS V14.01,2013-02-20 07:55:00,
2013-02-20 17:56:00,87.6,77.5,29.44,North,360,0.0,3.1,72,0.00,,,0.00,VWS V14.01,2013-02-20 07:56:00,
2013-02-20 17:57:00,87.6,77.5,29.44,North,360,1.1,1.1,72,0.00,,,0.00,VWS V14.01,2013-02-20 07:57:00,
2013-02-20 17:58:00,87.6,77.5,29.44,NW,315,0.0,1.1,72,0.00,,,0.00,VWS V14.01,2013-02-20 07:58:00,
2013-02-20 17:59:00,87.6,77.5,29.44,NNW,338,0.9,0.9,72,0.00,,,0.00,VWS V14.01,2013-02-20 07:59:00,
2013-02-20 18:00:00,87.6,77.5,29.44,North,360,2.2,2.2,72,0.00,,,0.00,VWS V14.01,2013-02-20 08:00:00,
2013-02-20 18:01:00,87.6,77.5,29.44,North,360,2.0,2.2,72,0.00,,,0.00,VWS V14.01,2013-02-20 08:01:00,
2013-02-20 18:02:00,87.6,77.5,29.44,NNE,22,2.7,2.7,72,0.00,,,0.00,VWS V14.01,2013-02-20 08:02:00,
2013-02-20 18:03:00,87.6,77.5,29.44,NE,45,4.0,4.0,72,0.00,,,0.00,VWS V14.01,2013-02-20 08:03:00,
2013-02-20 18:04:00,87.6,77.5,29.44,North,360,0.9,4.0,72,0.00,,,0.00,VWS V14.01,2013-02-20 08:04:00,
2013-02-20 18:05:00,87.6,77.5,29.44,North,360,0.9,0.9,72,0.00,,,0.00,VWS V14.01,2013-02-20 08:05:00,
2013-02-20 18:06:00,87.6,77.5,29.44,NNE,22,2.9,2.9,72,0.00,,,0.00,VWS V14.01,2013-02-20 08:06:00,
2013-02-20 18:07:00,87.6,77.5,29.44,North,360,1.1,2.9,72,0.00,,,0.00,VWS V14.01,2013-02-20 08:07:00,
2013-02-20 18:08:00,87.4,77.7,29.44,NNE,22,2.5,2.5,73,0.00,,,0.00,VWS V14.01,2013-02-20 08:08:00,
2013-02-20 18:09:00,87.4,77.7,29.44,North,360,1.6,2.5,73,0.00,,,0.00,VWS V14.01,2013-02-20 08:09:00,
2013-02-20 18:10:00,87.3,77.6,29.44,NNE,22,1.3,1.6,73,0.00,,,0.00,VWS V14.01,2013-02-20 08:10:00,
2013-02-20 18:11:00,87.3,77.6,29.44,ESE,112,0.0,1.3,73,0.00,,,0.00,VWS V14.01,2013-02-20 08:11:00,
2013-02-20 18:12:00,87.3,77.6,29.44,NNE,22,1.3,1.3,73,0.00,,,0.00,VWS V14.01,2013-02-20 08:12:00,
2013-02-20 18:13:00,87.3,77.6,29.44,NNE,22,1.3,1.3,73,0.00,,,0.00,VWS V14.01,2013-02-20 08:13:00,
2013-02-20 18:14:00,87.1,77.0,29.44,NNE,22,0.0,1.6,72,0.00,,,0.00,VWS V14.01,2013-02-20 08:14:00,
2013-02-20 18:15:00,87.3,77.6,29.44,East,90,1.1,1.1,73,0.00,,,0.00,VWS V14.01,2013-02-20 08:15:00,
2013-02-20 18:16:00,87.3,77.6,29.44,NNW,338,2.7,2.7,73,0.00,,,0.00,VWS V14.01,2013-02-20 08:16:00,
2013-02-20 18:17:00,87.1,77.0,29.44,NNE,22,1.1,2.7,72,0.00,,,0.00,VWS V14.01,2013-02-20 08:17:00,
2013-02-20 18:18:00,87.1,77.0,29.44,NNE,22,0.0,1.1,72,0.00,,,0.00,VWS V14.01,2013-02-20 08:18:00,
2013-02-20 18:19:00,87.1,77.4,29.44,ENE,68,1.3,1.3,73,0.00,,,0.00,VWS V14.01,2013-02-20 08:19:00,
2013-02-20 18:20:00,87.1,77.4,29.44,East,90,2.7,2.7,73,0.00,,,0.00,VWS V14.01,2013-02-20 08:20:00,
2013-02-20 18:21:00,87.1,77.4,29.44,East,90,2.7,2.7,73,0.00,,,0.00,VWS V14.01,2013-02-20 08:21:00,
2013-02-20 18:22:00,87.1,77.4,29.44,ESE,112,0.9,2.7,73,0.00,,,0.00,VWS V14.01,2013-02-20 08:22:00,
2013-02-20 18:23:00,87.1,77.4,29.44,East,90,1.3,1.3,73,0.00,,,0.00,VWS V14.01,2013-02-20 08:23:00,
2013-02-20 18:24:00,87.1,77.4,29.44,East,90,1.3,1.3,73,0.00,,,0.00,VWS V14.01,2013-02-20 08:24:00,
2013-02-20 18:25:00,87.1,77.4,29.44,East,90,1.3,1.3,73,0.00,,,0.00,VWS V14.01,2013-02-20 08:25:00,
2013-02-20 18:26:00,87.1,77.4,29.44,East,90,1.3,1.3,73,0.00,,,0.00,VWS V14.01,2013-02-20 08:26:00,
2013-02-20 18:27:00,87.1,77.4,29.44,East,90,2.0,2.0,73,0.00,,,0.00,VWS V14.01,2013-02-20 08:27:00,
2013-02-20 18:28:00,86.9,77.2,29.44,ESE,112,0.0,2.0,73,0.00,,,0.00,VWS V14.01,2013-02-20 08:28:00,
2013-02-20 18:29:00,86.9,77.2,29.44,ESE,112,0.0,0.0,73,0.00,,,0.00,VWS V14.01,2013-02-20 08:29:00,
2013-02-20 18:30:00,86.7,77.4,29.44,NNE,22,1.1,1.1,74,0.00,,,0.00,VWS V14.01,2013-02-20 08:30:00,
2013-02-20 18:31:00,86.7,77.4,29.44,NNE,22,1.1,1.1,74,0.00,,,0.00,VWS V14.01,2013-02-20 08:31:00,
2013-02-20 18:32:00,86.7,77.4,29.44,NNE,22,1.1,1.1,74,0.00,,,0.00,VWS V14.01,2013-02-20 08:32:00,
2013-02-20 18:33:00,86.5,77.3,29.44,NNE,22,0.0,2.0,74,0.00,,,0.00,VWS V14.01,2013-02-20 08:33:00,
2013-02-20 18:34:00,86.5,77.3,29.44,NNE,22,0.0,0.0,74,0.00,,,0.00,VWS V14.01,2013-02-20 08:34:00,
2013-02-20 18:35:00,86.5,77.7,29.44,NNE,22,0.0,0.0,75,0.00,,,0.00,VWS V14.01,2013-02-20 08:35:00,
2013-02-20 18:36:00,86.5,77.7,29.44,SSE,158,0.0,0.0,75,0.00,,,0.00,VWS V14.01,2013-02-20 08:36:00,
2013-02-20 18:37:00,86.5,77.7,29.44,East,90,0.0,1.1,75,0.00,,,0.00,VWS V14.01,2013-02-20 08:37:00,
2013-02-20 18:38:00,86.4,77.5,29.44,East,90,0.0,0.0,75,0.00,,,0.00,VWS V14.01,2013-02-20 08:38:00,
2013-02-20 18:39:00,86.4,77.5,29.44,East,90,0.9,2.5,75,0.00,,,0.00,VWS V14.01,2013-02-20 08:39:00,
2013-02-20 18:40:00,86.4,77.5,29.44,NE,45,0.0,0.9,75,0.00,,,0.00,VWS V14.01,2013-02-20 08:40:00,
2013-02-20 18:41:00,86.4,77.5,29.44,NE,45,0.0,0.0,75,0.00,,,0.00,VWS V14.01,2013-02-20 08:41:00,
2013-02-20 18:42:00,86.4,77.5,29.44,NE,45,0.0,0.0,75,0.00,,,0.00,VWS V14.01,2013-02-20 08:42:00,
2013-02-20 18:43:00,86.4,77.5,29.44,NE,45,0.0,0.0,75,0.00,,,0.00,VWS V14.01,2013-02-20 08:43:00,
2013-02-20 18:44:00,86.4,77.5,29.44,NNE,22,0.0,0.0,75,0.00,,,0.00,VWS V14.01,2013-02-20 08:44:00,
2013-02-20 18:45:00,86.4,77.5,29.44,NNE,22,0.0,0.0,75,0.00,,,0.00,VWS V14.01,2013-02-20 08:45:00,
2013-02-20 18:46:00,86.4,77.5,29.44,NNE,22,0.0,0.0,75,0.00,,,0.00,VWS V14.01,2013-02-20 08:46:00,
2013-02-20 18:47:00,86.4,77.5,29.44,NNE,22,0.0,0.0,75,0.00,,,0.00,VWS V14.01,2013-02-20 08:47:00,
2013-02-20 18:48:00,86.4,77.5,29.44,NNE,22,0.0,0.0,75,0.00,,,0.00,VWS V14.01,2013-02-20 08:48:00,
2013-02-20 18:49:00,86.4,77.5,29.44,NE,45,0.0,0.0,75,0.00,,,0.00,VWS V14.01,2013-02-20 08:49:00,
2013-02-20 18:50:00,86.4,77.5,29.44,East,90,0.0,0.0,75,0.00,,,0.00,VWS V14.01,2013-02-20 08:50:00,
2013-02-20 18:51:00,86.4,77.5,29.44,North,360,0.0,0.0,75,0.00,,,0.00,VWS V14.01,2013-02-20 08:51:00,
2013-02-20 18:52:00,86.4,77.5,29.44,NNE,22,0.0,0.0,75,0.00,,,0.00,VWS V14.01,2013-02-20 08:52:00,
2013-02-20 18:53:00,86.2,77.3,29.44,NNE,22,0.0,0.0,75,0.00,,,0.00,VWS V14.01,2013-02-20 08:53:00,
2013-02-20 18:54:00,86.2,77.7,29.44,South,180,0.0,0.0,76,0.00,,,0.00,VWS V14.01,2013-02-20 08:54:00,
2013-02-20 18:55:00,86.2,77.7,29.44,SE,135,2.2,2.2,76,0.00,,,0.00,VWS V14.01,2013-02-20 08:55:00,
2013-02-20 18:56:00,86.2,77.7,29.44,SSE,158,0.0,2.2,76,0.00,,,0.00,VWS V14.01,2013-02-20 08:56:00,
2013-02-20 18:57:00,86.2,77.7,29.47,SSE,158,0.0,0.0,76,0.00,,,0.00,VWS V14.01,2013-02-20 08:57:00,
2013-02-20 18:58:00,86.2,77.7,29.47,SSE,158,0.0,0.0,76,0.00,,,0.00,VWS V14.01,2013-02-20 08:58:00,
2013-02-20 18:59:00,86.2,77.7,29.47,SSE,158,0.0,0.0,76,0.00,,,0.00,VWS V14.01,2013-02-20 08:59:00,
2013-02-20 19:00:00,86.0,77.6,29.47,SSE,158,0.0,0.0,76,0.00,,,0.00,VWS V14.01,2013-02-20 09:00:00,
2013-02-20 19:01:00,86.0,77.9,29.47,SSE,158,0.0,0.0,77,0.00,,,0.00,VWS V14.01,2013-02-20 09:01:00,
2013-02-20 19:02:00,86.0,77.9,29.47,SSE,158,0.0,0.0,77,0.00,,,0.00,VWS V14.01,2013-02-20 09:02:00,
2013-02-20 19:03:00,86.2,78.1,29.47,SSE,158,0.0,0.0,77,0.00,,,0.00,VWS V14.01,2013-02-20 09:03:00,
2013-02-20 19:04:00,86.2,78.1,29.47,SSE,158,0.0,0.0,77,0.00,,,0.00,VWS V14.01,2013-02-20 09:04:00,
2013-02-20 19:05:00,85.8,77.8,29.47,SSE,158,1.6,1.6,77,0.00,,,0.00,VWS V14.01,2013-02-20 09:05:00,
2013-02-20 19:06:00,85.8,77.8,29.47,SSE,158,1.6,1.6,77,0.00,,,0.00,VWS V14.01,2013-02-20 09:06:00,
2013-02-20 19:07:00,85.8,77.8,29.47,SSE,158,1.1,1.6,77,0.00,,,0.00,VWS V14.01,2013-02-20 09:07:00,
2013-02-20 19:08:00,85.8,78.2,29.47,SSE,158,1.1,1.1,78,0.00,,,0.00,VWS V14.01,2013-02-20 09:08:00,
2013-02-20 19:09:00,85.8,78.2,29.47,South,180,0.0,2.2,78,0.00,,,0.00,VWS V14.01,2013-02-20 09:09:00,
2013-02-20 19:10:00,85.8,78.2,29.47,SSW,202,0.0,0.0,78,0.00,,,0.00,VWS V14.01,2013-02-20 09:10:00,
2013-02-20 19:11:00,85.8,78.2,29.47,SSW,202,0.0,0.0,78,0.00,,,0.00,VWS V14.01,2013-02-20 09:11:00,
2013-02-20 19:12:00,85.8,78.2,29.47,SSW,202,0.0,0.0,78,0.00,,,0.00,VWS V14.01,2013-02-20 09:12:00,
2013-02-20 19:13:00,85.8,78.2,29.47,SSW,202,0.0,0.0,78,0.00,,,0.00,VWS V14.01,2013-02-20 09:13:00,
2013-02-20 19:14:00,85.8,78.2,29.47,SSW,202,0.0,0.0,78,0.00,,,0.00,VWS V14.01,2013-02-20 09:14:00,
2013-02-20 19:15:00,85.8,78.2,29.47,SSW,202,0.0,0.0,78,0.00,,,0.00,VWS V14.01,2013-02-20 09:15:00,
2013-02-20 19:16:00,85.8,78.2,29.47,SSW,202,0.0,0.0,78,0.00,,,0.00,VWS V14.01,2013-02-20 09:16:00,
2013-02-20 19:17:00,85.6,77.6,29.47,SSW,202,0.0,0.0,77,0.00,,,0.00,VWS V14.01,2013-02-20 09:17:00,
2013-02-20 19:18:00,85.6,77.6,29.47,SSW,202,0.0,0.0,77,0.00,,,0.00,VWS V14.01,2013-02-20 09:18:00,
2013-02-20 19:19:00,85.6,77.6,29.47,SE,135,0.0,0.0,77,0.00,,,0.00,VWS V14.01,2013-02-20 09:19:00,
2013-02-20 19:20:00,85.6,77.6,29.47,SE,135,0.0,0.0,77,0.00,,,0.00,VWS V14.01,2013-02-20 09:20:00,
2013-02-20 19:21:00,85.6,77.6,29.47,SE,135,0.0,0.0,77,0.00,,,0.00,VWS V14.01,2013-02-20 09:21:00,
2013-02-20 19:22:00,85.6,77.6,29.47,SE,135,0.0,0.0,77,0.00,,,0.00,VWS V14.01,2013-02-20 09:22:00,
2013-02-20 19:23:00,85.3,77.7,29.47,SE,135,0.0,0.0,78,0.00,,,0.00,VWS V14.01,2013-02-20 09:23:00,
2013-02-20 19:24:00,85.3,77.7,29.47,SE,135,0.0,0.0,78,0.00,,,0.00,VWS V14.01,2013-02-20 09:24:00,
2013-02-20 19:25:00,85.3,77.7,29.47,SE,135,0.0,0.0,78,0.00,,,0.00,VWS V14.01,2013-02-20 09:25:00,
2013-02-20 19:26:00,85.3,77.7,29.47,SSE,158,0.0,0.0,78,0.00,,,0.00,VWS V14.01,2013-02-20 09:26:00,
2013-02-20 19:27:00,85.3,77.7,29.47,SSE,158,0.0,0.0,78,0.00,,,0.00,VWS V14.01,2013-02-20 09:27:00,
2013-02-20 19:28:00,85.3,77.7,29.47,SSE,158,0.0,0.0,78,0.00,,,0.00,VWS V14.01,2013-02-20 09:28:00,
2013-02-20 19:29:00,85.3,77.7,29.47,SSE,158,0.0,0.0,78,0.00,,,0.00,VWS V14.01,2013-02-20 09:29:00,
2013-02-20 19:30:00,85.3,77.7,29.47,SSE,158,2.0,2.0,78,0.00,,,0.00,VWS V14.01,2013-02-20 09:30:00,
2013-02-20 19:31:00,85.3,77.7,29.47,SE,135,0.0,0.0,78,0.00,,,0.00,VWS V14.01,2013-02-20 09:31:00,
2013-02-20 19:32:00,85.3,77.7,29.47,SE,135,0.0,0.0,78,0.00,,,0.00,VWS V14.01,2013-02-20 09:32:00,
2013-02-20 19:33:00,85.3,77.7,29.47,SE,135,0.0,0.0,78,0.00,,,0.00,VWS V14.01,2013-02-20 09:33:00,
2013-02-20 19:34:00,85.3,77.7,29.47,SE,135,0.0,0.0,78,0.00,,,0.00,VWS V14.01,2013-02-20 09:34:00,
2013-02-20 19:35:00,85.1,77.5,29.47,SE,135,0.0,0.0,78,0.00,,,0.00,VWS V14.01,2013-02-20 09:35:00,
2013-02-20 19:36:00,85.1,77.5,29.47,SE,135,0.0,0.0,78,0.00,,,0.00,VWS V14.01,2013-02-20 09:36:00,
2013-02-20 19:37:00,85.1,77.5,29.47,SE,135,2.7,2.7,78,0.00,,,0.00,VWS V14.01,2013-02-20 09:37:00,
2013-02-20 19:38:00,85.1,77.5,29.47,SE,135,2.7,2.7,78,0.00,,,0.00,VWS V14.01,2013-02-20 09:38:00,
2013-02-20 19:39:00,85.1,77.9,29.47,SSE,158,2.9,2.9,79,0.00,,,0.00,VWS V14.01,2013-02-20 09:39:00,
2013-02-20 19:40:00,84.9,77.7,29.47,SSE,158,2.9,2.9,79,0.00,,,0.00,VWS V14.01,2013-02-20 09:40:00,
2013-02-20 19:41:00,84.9,77.7,29.47,SSE,158,2.9,2.9,79,0.00,,,0.00,VWS V14.01,2013-02-20 09:41:00,
2013-02-20 19:42:00,84.9,77.7,29.47,SSE,158,2.9,2.9,79,0.00,,,0.00,VWS V14.01,2013-02-20 09:42:00,
2013-02-20 19:43:00,84.9,77.7,29.47,SSE,158,2.9,2.9,79,0.00,,,0.00,VWS V14.01,2013-02-20 09:43:00,
2013-02-20 19:44:00,84.9,77.7,29.47,SSE,158,2.9,2.9,79,0.00,,,0.00,VWS V14.01,2013-02-20 09:44:00,
2013-02-20 19:45:00,84.9,77.7,29.47,SSE,158,2.9,2.9,79,0.00,,,0.00,VWS V14.01,2013-02-20 09:45:00,
2013-02-20 19:46:00,84.9,77.7,29.47,South,180,1.3,1.3,79,0.00,,,0.00,VWS V14.01,2013-02-20 09:46:00,
2013-02-20 19:47:00,84.7,77.5,29.47,South,180,1.3,1.3,79,0.00,,,0.00,VWS V14.01,2013-02-20 09:47:00,
2013-02-20 19:48:00,84.7,77.5,29.47,South,180,1.3,1.3,79,0.00,,,0.00,VWS V14.01,2013-02-20 09:48:00,
2013-02-20 19:49:00,84.7,77.9,29.47,South,180,1.3,1.3,80,0.00,,,0.00,VWS V14.01,2013-02-20 09:49:00,
2013-02-20 19:50:00,84.7,77.9,29.47,South,180,1.3,1.3,80,0.00,,,0.00,VWS V14.01,2013-02-20 09:50:00,
2013-02-20 19:51:00,84.7,77.9,29.47,SW,225,2.2,2.2,80,0.00,,,0.00,VWS V14.01,2013-02-20 09:51:00,
2013-02-20 19:52:00,84.7,77.9,29.47,SW,225,2.2,2.2,80,0.00,,,0.00,VWS V14.01,2013-02-20 09:52:00,
2013-02-20 19:53:00,84.7,77.9,29.47,SW,225,0.0,2.2,80,0.00,,,0.00,VWS V14.01,2013-02-20 09:53:00,
2013-02-20 19:54:00,84.7,77.9,29.47,SW,225,0.0,0.0,80,0.00,,,0.00,VWS V14.01,2013-02-20 09:54:00,
2013-02-20 19:55:00,84.7,77.9,29.47,SW,225,0.0,0.0,80,0.00,,,0.00,VWS V14.01,2013-02-20 09:55:00,
2013-02-20 19:56:00,84.4,77.5,29.47,SSW,202,0.0,0.0,80,0.00,,,0.00,VWS V14.01,2013-02-20 09:56:00,
2013-02-20 19:57:00,84.4,77.5,29.47,SSW,202,0.0,0.0,80,0.00,,,0.00,VWS V14.01,2013-02-20 09:57:00,
2013-02-20 19:58:00,84.4,77.5,29.47,SE,135,0.0,0.0,80,0.00,,,0.00,VWS V14.01,2013-02-20 09:58:00,
2013-02-20 19:59:00,84.4,77.5,29.47,SE,135,0.0,0.0,80,0.00,,,0.00,VWS V14.01,2013-02-20 09:59:00,
2013-02-20 20:00:00,84.4,77.5,29.47,SE,135,0.0,0.0,80,0.00,,,0.00,VWS V14.01,2013-02-20 10:00:00,
2013-02-20 20:01:00,84.2,77.4,29.47,SE,135,0.0,0.0,80,0.00,,,0.00,VWS V14.01,2013-02-20 10:01:00,
2013-02-20 20:02:00,84.2,77.4,29.47,SE,135,0.0,0.0,80,0.00,,,0.00,VWS V14.01,2013-02-20 10:02:00,
2013-02-20 20:03:00,84.4,77.5,29.47,SE,135,0.0,0.0,80,0.00,,,0.00,VWS V14.01,2013-02-20 10:03:00,
2013-02-20 20:04:00,84.4,77.5,29.47,SE,135,0.0,0.0,80,0.00,,,0.00,VWS V14.01,2013-02-20 10:04:00,
2013-02-20 20:05:00,84.2,77.4,29.47,SE,135,0.0,0.0,80,0.00,,,0.00,VWS V14.01,2013-02-20 10:05:00,
2013-02-20 20:06:00,84.2,77.4,29.47,SE,135,0.0,0.0,80,0.00,,,0.00,VWS V14.01,2013-02-20 10:06:00,
2013-02-20 20:07:00,84.2,77.4,29.47,SE,135,0.0,0.0,80,0.00,,,0.00,VWS V14.01,2013-02-20 10:07:00,
2013-02-20 20:08:00,84.2,77.4,29.47,SE,135,0.0,0.0,80,0.00,,,0.00,VWS V14.01,2013-02-20 10:08:00,
2013-02-20 20:09:00,84.0,77.6,29.47,SE,135,0.0,0.0,81,0.00,,,0.00,VWS V14.01,2013-02-20 10:09:00,
2013-02-20 20:10:00,84.0,77.6,29.47,SE,135,0.0,0.0,81,0.00,,,0.00,VWS V14.01,2013-02-20 10:10:00,
2013-02-20 20:11:00,84.0,77.6,29.47,SE,135,0.0,0.0,81,0.00,,,0.00,VWS V14.01,2013-02-20 10:11:00,
2013-02-20 20:12:00,84.0,77.6,29.47,SE,135,0.0,0.0,81,0.00,,,0.00,VWS V14.01,2013-02-20 10:12:00,
2013-02-20 20:13:00,84.0,77.6,29.47,SE,135,0.0,0.0,81,0.00,,,0.00,VWS V14.01,2013-02-20 10:13:00,
2013-02-20 20:14:00,84.0,77.6,29.47,South,180,0.0,0.0,81,0.00,,,0.00,VWS V14.01,2013-02-20 10:14:00,
2013-02-20 20:15:00,84.0,77.6,29.47,South,180,0.0,0.0,81,0.00,,,0.00,VWS V14.01,2013-02-20 10:15:00,
2013-02-20 20:16:00,84.0,77.6,29.47,South,180,0.0,0.0,81,0.00,,,0.00,VWS V14.01,2013-02-20 10:16:00,
2013-02-20 20:17:00,84.0,77.6,29.47,South,180,0.0,0.0,81,0.00,,,0.00,VWS V14.01,2013-02-20 10:17:00,
2013-02-20 20:18:00,84.0,77.6,29.47,South,180,0.0,0.0,81,0.00,,,0.00,VWS V14.01,2013-02-20 10:18:00,
2013-02-20 20:19:00,84.0,77.6,29.47,South,180,0.0,0.0,81,0.00,,,0.00,VWS V14.01,2013-02-20 10:19:00,
2013-02-20 20:20:00,84.0,77.6,29.47,South,180,0.0,0.0,81,0.00,,,0.00,VWS V14.01,2013-02-20 10:20:00,
2013-02-20 20:21:00,84.0,77.6,29.47,South,180,0.0,0.0,81,0.00,,,0.00,VWS V14.01,2013-02-20 10:21:00,
2013-02-20 20:22:00,84.0,77.6,29.47,South,180,0.0,0.0,81,0.00,,,0.00,VWS V14.01,2013-02-20 10:22:00,
2013-02-20 20:23:00,83.8,77.4,29.47,South,180,0.0,0.0,81,0.00,,,0.00,VWS V14.01,2013-02-20 10:23:00,
2013-02-20 20:24:00,83.8,77.4,29.47,South,180,0.0,0.0,81,0.00,,,0.00,VWS V14.01,2013-02-20 10:24:00,
2013-02-20 20:25:00,83.8,77.4,29.47,South,180,0.0,0.0,81,0.00,,,0.00,VWS V14.01,2013-02-20 10:25:00,
2013-02-20 20:26:00,83.5,77.0,29.47,South,180,0.0,0.0,81,0.00,,,0.00,VWS V14.01,2013-02-20 10:26:00,
2013-02-20 20:27:00,83.5,77.0,29.50,South,180,0.0,0.0,81,0.00,,,0.00,VWS V14.01,2013-02-20 10:27:00,
2013-02-20 20:28:00,83.5,77.0,29.50,South,180,0.0,0.0,81,0.00,,,0.00,VWS V14.01,2013-02-20 10:28:00,
2013-02-20 20:29:00,83.3,76.9,29.50,South,180,0.0,0.0,81,0.00,,,0.00,VWS V14.01,2013-02-20 10:29:00,
2013-02-20 20:30:00,83.3,76.9,29.50,South,180,0.0,0.0,81,0.00,,,0.00,VWS V14.01,2013-02-20 10:30:00,
2013-02-20 20:31:00,83.3,76.9,29.50,South,180,0.0,0.0,81,0.00,,,0.00,VWS V14.01,2013-02-20 10:31:00,
2013-02-20 20:32:00,83.3,76.9,29.50,South,180,0.0,0.0,81,0.00,,,0.00,VWS V14.01,2013-02-20 10:32:00,
2013-02-20 20:33:00,83.3,76.9,29.50,South,180,0.0,0.0,81,0.00,,,0.00,VWS V14.01,2013-02-20 10:33:00,
2013-02-20 20:34:00,83.3,76.9,29.50,South,180,0.0,0.0,81,0.00,,,0.00,VWS V14.01,2013-02-20 10:34:00,
2013-02-20 20:35:00,83.3,77.2,29.50,SE,135,2.7,2.7,82,0.00,,,0.00,VWS V14.01,2013-02-20 10:35:00,
2013-02-20 20:36:00,83.3,77.2,29.50,SE,135,2.7,2.7,82,0.00,,,0.00,VWS V14.01,2013-02-20 10:36:00,
2013-02-20 20:37:00,83.5,77.4,29.50,SSE,158,1.3,2.7,82,0.00,,,0.00,VWS V14.01,2013-02-20 10:37:00,
2013-02-20 20:38:00,83.5,77.4,29.50,SSE,158,2.9,2.9,82,0.00,,,0.00,VWS V14.01,2013-02-20 10:38:00,
2013-02-20 20:39:00,83.5,77.4,29.50,SSE,158,2.0,2.9,82,0.00,,,0.00,VWS V14.01,2013-02-20 10:39:00,
2013-02-20 20:40:00,83.5,77.4,29.50,SSE,158,4.7,4.7,82,0.00,,,0.00,VWS V14.01,2013-02-20 10:40:00,
2013-02-20 20:41:00,83.1,77.1,29.50,SSE,158,1.6,4.7,82,0.00,,,0.00,VWS V14.01,2013-02-20 10:41:00,
2013-02-20 20:42:00,83.1,77.1,29.50,SE,135,2.5,2.5,82,0.00,,,0.00,VWS V14.01,2013-02-20 10:42:00,
2013-02-20 20:43:00,83.3,77.2,29.50,SE,135,2.5,2.5,82,0.00,,,0.00,VWS V14.01,2013-02-20 10:43:00,
2013-02-20 20:44:00,83.3,77.2,29.50,SE,135,2.5,2.5,82,0.00,,,0.00,VWS V14.01,2013-02-20 10:44:00,
2013-02-20 20:45:00,83.1,77.1,29.50,SE,135,2.5,2.5,82,0.00,,,0.00,VWS V14.01,2013-02-20 10:45:00,
2013-02-20 20:46:00,83.1,77.1,29.50,SE,135,2.5,2.5,82,0.00,,,0.00,VWS V14.01,2013-02-20 10:46:00,
2013-02-20 20:47:00,83.3,77.2,29.50,SE,135,2.5,2.5,82,0.00,,,0.00,VWS V14.01,2013-02-20 10:47:00,
2013-02-20 20:48:00,83.1,77.1,29.50,SE,135,2.5,2.5,82,0.00,,,0.00,VWS V14.01,2013-02-20 10:48:00,
2013-02-20 20:49:00,83.1,77.1,29.50,SE,135,2.5,2.5,82,0.00,,,0.00,VWS V14.01,2013-02-20 10:49:00,
2013-02-20 20:50:00,83.1,77.1,29.50,SE,135,2.5,2.5,82,0.00,,,0.00,VWS V14.01,2013-02-20 10:50:00,
2013-02-20 20:51:00,83.1,77.1,29.50,South,180,2.9,2.9,82,0.00,,,0.00,VWS V14.01,2013-02-20 10:51:00,
2013-02-20 20:52:00,83.1,77.1,29.50,SSW,202,1.6,2.9,82,0.00,,,0.00,VWS V14.01,2013-02-20 10:52:00,
2013-02-20 20:53:00,83.1,77.1,29.50,SW,225,3.1,3.1,82,0.00,,,0.00,VWS V14.01,2013-02-20 10:53:00,
2013-02-20 20:54:00,83.1,77.1,29.50,SW,225,3.1,3.1,82,0.00,,,0.00,VWS V14.01,2013-02-20 10:54:00,
2013-02-20 20:55:00,83.1,77.1,29.50,SW,225,3.1,3.1,82,0.00,,,0.00,VWS V14.01,2013-02-20 10:55:00,
2013-02-20 20:56:00,83.1,77.1,29.50,SW,225,3.1,3.1,82,0.00,,,0.00,VWS V14.01,2013-02-20 10:56:00,
2013-02-20 20:57:00,83.1,77.1,29.50,South,180,2.0,3.1,82,0.00,,,0.00,VWS V14.01,2013-02-20 10:57:00,
2013-02-20 20:58:00,83.1,77.1,29.50,South,180,2.0,2.0,82,0.00,,,0.00,VWS V14.01,2013-02-20 10:58:00,
2013-02-20 20:59:00,83.1,77.1,29.50,South,180,2.0,2.0,82,0.00,,,0.00,VWS V14.01,2013-02-20 10:59:00,
2013-02-20 21:00:00,83.1,77.1,29.50,South,180,2.0,2.0,82,0.00,,,0.00,VWS V14.01,2013-02-20 11:00:00,
2013-02-20 21:01:00,83.3,77.2,29.50,South,180,0.0,2.0,82,0.00,,,0.00,VWS V14.01,2013-02-20 11:01:00,
2013-02-20 21:02:00,83.3,77.2,29.50,South,180,0.0,0.0,82,0.00,,,0.00,VWS V14.01,2013-02-20 11:02:00,
2013-02-20 21:03:00,83.3,77.2,29.50,South,180,0.0,0.0,82,0.00,,,0.00,VWS V14.01,2013-02-20 11:03:00,
2013-02-20 21:04:00,83.3,77.2,29.50,South,180,0.0,0.0,82,0.00,,,0.00,VWS V14.01,2013-02-20 11:04:00,
2013-02-20 21:05:00,83.3,77.2,29.50,South,180,0.0,0.0,82,0.00,,,0.00,VWS V14.01,2013-02-20 11:05:00,
2013-02-20 21:06:00,83.3,77.2,29.50,South,180,0.0,0.0,82,0.00,,,0.00,VWS V14.01,2013-02-20 11:06:00,
2013-02-20 21:07:00,83.3,77.2,29.50,South,180,0.0,0.0,82,0.00,,,0.00,VWS V14.01,2013-02-20 11:07:00,
2013-02-20 21:08:00,83.3,77.2,29.50,South,180,0.0,0.0,82,0.00,,,0.00,VWS V14.01,2013-02-20 11:08:00,
2013-02-20 21:09:00,83.3,77.2,29.50,South,180,0.0,0.0,82,0.00,,,0.00,VWS V14.01,2013-02-20 11:09:00,
2013-02-20 21:10:00,83.3,77.2,29.50,South,180,0.0,0.0,82,0.00,,,0.00,VWS V14.01,2013-02-20 11:10:00,
2013-02-20 21:11:00,83.3,77.2,29.50,South,180,0.0,0.0,82,0.00,,,0.00,VWS V14.01,2013-02-20 11:11:00,
2013-02-20 21:12:00,83.1,77.1,29.50,South,180,0.0,0.0,82,0.00,,,0.00,VWS V14.01,2013-02-20 11:12:00,
2013-02-20 21:13:00,83.1,77.1,29.50,South,180,0.0,0.0,82,0.00,,,0.00,VWS V14.01,2013-02-20 11:13:00,
2013-02-20 21:14:00,83.1,77.1,29.50,South,180,0.0,0.0,82,0.00,,,0.00,VWS V14.01,2013-02-20 11:14:00,
2013-02-20 21:15:00,83.1,77.1,29.50,South,180,0.0,0.0,82,0.00,,,0.00,VWS V14.01,2013-02-20 11:15:00,
2013-02-20 21:16:00,83.1,77.1,29.50,South,180,1.6,1.6,82,0.00,,,0.00,VWS V14.01,2013-02-20 11:16:00,
2013-02-20 21:17:00,83.1,77.1,29.50,SSE,158,0.0,0.0,82,0.00,,,0.00,VWS V14.01,2013-02-20 11:17:00,
2013-02-20 21:18:00,83.1,77.1,29.50,SSW,202,2.0,2.0,82,0.00,,,0.00,VWS V14.01,2013-02-20 11:18:00,
2013-02-20 21:19:00,83.1,77.1,29.50,South,180,1.1,2.0,82,0.00,,,0.00,VWS V14.01,2013-02-20 11:19:00,
2013-02-20 21:20:00,83.1,77.1,29.50,South,180,1.1,1.1,82,0.00,,,0.00,VWS V14.01,2013-02-20 11:20:00,
2013-02-20 21:21:00,83.3,77.6,29.50,South,180,1.1,1.1,83,0.00,,,0.00,VWS V14.01,2013-02-20 11:21:00,
2013-02-20 21:22:00,83.3,77.6,29.50,South,180,0.0,0.0,83,0.00,,,0.00,VWS V14.01,2013-02-20 11:22:00,
2013-02-20 21:23:00,83.3,77.6,29.50,South,180,0.0,0.0,83,0.00,,,0.00,VWS V14.01,2013-02-20 11:23:00,
2013-02-20 21:24:00,83.3,77.6,29.50,South,180,0.0,0.0,83,0.00,,,0.00,VWS V14.01,2013-02-20 11:24:00,
2013-02-20 21:25:00,83.3,77.2,29.50,South,180,0.0,0.0,82,0.00,,,0.00,VWS V14.01,2013-02-20 11:25:00,
2013-02-20 21:26:00,83.1,77.1,29.50,South,180,0.0,0.0,82,0.00,,,0.00,VWS V14.01,2013-02-20 11:26:00,
2013-02-20 21:27:00,83.1,77.1,29.50,South,180,0.0,0.0,82,0.00,,,0.00,VWS V14.01,2013-02-20 11:27:00,
2013-02-20 21:28:00,83.1,77.1,29.50,South,180,0.0,0.0,82,0.00,,,0.00,VWS V14.01,2013-02-20 11:28:00,
2013-02-20 21:29:00,83.1,77.1,29.50,South,180,0.0,0.0,82,0.00,,,0.00,VWS V14.01,2013-02-20 11:29:00,
2013-02-20 21:30:00,83.1,77.1,29.50,SSE,158,1.1,1.1,82,0.00,,,0.00,VWS V14.01,2013-02-20 11:30:00,
2013-02-20 21:31:00,83.1,77.1,29.50,SSE,158,1.1,1.1,82,0.00,,,0.00,VWS V14.01,2013-02-20 11:31:00,
2013-02-20 21:32:00,83.5,77.8,29.50,SSE,158,3.1,3.1,83,0.00,,,0.00,VWS V14.01,2013-02-20 11:32:00,
2013-02-20 21:33:00,83.5,77.8,29.50,South,180,0.0,3.1,83,0.00,,,0.00,VWS V14.01,2013-02-20 11:33:00,
2013-02-20 21:34:00,83.5,77.8,29.50,SSE,158,0.9,0.9,83,0.00,,,0.00,VWS V14.01,2013-02-20 11:34:00,
2013-02-20 21:35:00,83.5,77.8,29.50,SSE,158,0.0,0.9,83,0.00,,,0.00,VWS V14.01,2013-02-20 11:35:00,
2013-02-20 21:36:00,83.5,77.8,29.50,SSE,158,0.0,0.0,83,0.00,,,0.00,VWS V14.01,2013-02-20 11:36:00,
2013-02-20 21:37:00,83.3,77.6,29.50,South,180,0.0,1.1,83,0.00,,,0.00,VWS V14.01,2013-02-20 11:37:00,
2013-02-20 21:38:00,83.3,77.6,29.50,South,180,0.0,1.1,83,0.00,,,0.00,VWS V14.01,2013-02-20 11:38:00,
2013-02-20 21:39:00,83.1,77.4,29.50,South,180,0.0,0.0,83,0.00,,,0.00,VWS V14.01,2013-02-20 11:39:00,
2013-02-20 21:40:00,82.9,77.2,29.50,South,180,0.0,0.0,83,0.00,,,0.00,VWS V14.01,2013-02-20 11:40:00,
2013-02-20 21:41:00,82.9,77.2,29.50,South,180,0.0,0.0,83,0.00,,,0.00,VWS V14.01,2013-02-20 11:41:00,
2013-02-20 21:42:00,82.9,77.2,29.50,South,180,0.0,0.0,83,0.00,,,0.00,VWS V14.01,2013-02-20 11:42:00,
2013-02-20 21:43:00,82.9,77.2,29.50,South,180,0.0,0.0,83,0.00,,,0.00,VWS V14.01,2013-02-20 11:43:00,
2013-02-20 21:44:00,82.9,77.2,29.50,South,180,0.0,0.0,83,0.00,,,0.00,VWS V14.01,2013-02-20 11:44:00,
2013-02-20 21:45:00,82.9,77.2,29.50,South,180,0.0,0.0,83,0.00,,,0.00,VWS V14.01,2013-02-20 11:45:00,
2013-02-20 21:46:00,82.8,77.1,29.50,South,180,0.0,0.0,83,0.00,,,0.00,VWS V14.01,2013-02-20 11:46:00,
2013-02-20 21:47:00,82.8,77.1,29.50,South,180,0.0,0.0,83,0.00,,,0.00,VWS V14.01,2013-02-20 11:47:00,
2013-02-20 21:48:00,82.8,77.1,29.50,SW,225,2.7,2.7,83,0.00,,,0.00,VWS V14.01,2013-02-20 11:48:00,
2013-02-20 21:49:00,82.8,77.1,29.50,SSW,202,0.0,2.7,83,0.00,,,0.00,VWS V14.01,2013-02-20 11:49:00,
2013-02-20 21:50:00,82.8,77.1,29.50,South,180,0.0,0.0,83,0.00,,,0.00,VWS V14.01,2013-02-20 11:50:00,
2013-02-20 21:51:00,82.8,77.1,29.50,SSE,158,0.9,0.9,83,0.00,,,0.00,VWS V14.01,2013-02-20 11:51:00,
2013-02-20 21:52:00,82.8,77.1,29.50,SSE,158,1.3,1.3,83,0.00,,,0.00,VWS V14.01,2013-02-20 11:52:00,
2013-02-20 21:53:00,82.8,77.1,29.50,SE,135,0.0,1.3,83,0.00,,,0.00,VWS V14.01,2013-02-20 11:53:00,
2013-02-20 21:54:00,82.8,77.1,29.50,SE,135,1.6,1.6,83,0.00,,,0.00,VWS V14.01,2013-02-20 11:54:00,
2013-02-20 21:55:00,82.4,76.7,29.50,SE,135,0.0,1.6,83,0.00,,,0.00,VWS V14.01,2013-02-20 11:55:00,
2013-02-20 21:56:00,82.4,76.7,29.50,SE,135,0.0,0.0,83,0.00,,,0.00,VWS V14.01,2013-02-20 11:56:00,
2013-02-20 21:57:00,82.4,76.7,29.50,SE,135,0.0,0.0,83,0.00,,,0.00,VWS V14.01,2013-02-20 11:57:00,
2013-02-20 21:58:00,82.4,76.7,29.50,SE,135,0.0,0.0,83,0.00,,,0.00,VWS V14.01,2013-02-20 11:58:00,
2013-02-20 21:59:00,82.4,76.7,29.50,SE,135,0.0,0.0,83,0.00,,,0.00,VWS V14.01,2013-02-20 11:59:00,
2013-02-20 22:00:00,82.4,76.7,29.50,SE,135,0.0,0.0,83,0.00,,,0.00,VWS V14.01,2013-02-20 12:00:00,
2013-02-20 22:01:00,82.4,76.7,29.50,SE,135,0.0,0.0,83,0.00,,,0.00,VWS V14.01,2013-02-20 12:01:00,
2013-02-20 22:02:00,82.6,77.3,29.50,SSE,158,0.0,0.0,84,0.00,,,0.00,VWS V14.01,2013-02-20 12:02:00,
2013-02-20 22:03:00,82.8,77.4,29.50,South,180,0.0,0.0,84,0.00,,,0.00,VWS V14.01,2013-02-20 12:03:00,
2013-02-20 22:04:00,82.8,77.4,29.50,SSW,202,1.1,1.1,84,0.00,,,0.00,VWS V14.01,2013-02-20 12:04:00,
2013-02-20 22:05:00,82.6,77.3,29.50,SSW,202,1.3,1.3,84,0.00,,,0.00,VWS V14.01,2013-02-20 12:05:00,
2013-02-20 22:06:00,82.6,77.3,29.50,SW,225,0.9,1.3,84,0.00,,,0.00,VWS V14.01,2013-02-20 12:06:00,
2013-02-20 22:07:00,82.6,77.3,29.50,SSW,202,1.3,1.3,84,0.00,,,0.00,VWS V14.01,2013-02-20 12:07:00,
2013-02-20 22:08:00,82.6,77.3,29.50,SW,225,1.1,1.3,84,0.00,,,0.00,VWS V14.01,2013-02-20 12:08:00,
2013-02-20 22:09:00,82.8,77.4,29.50,South,180,1.6,1.6,84,0.00,,,0.00,VWS V14.01,2013-02-20 12:09:00,
2013-02-20 22:10:00,82.8,77.1,29.50,South,180,0.0,1.6,83,0.00,,,0.00,VWS V14.01,2013-02-20 12:10:00,
2013-02-20 22:11:00,82.8,77.1,29.50,SSE,158,1.6,1.6,83,0.00,,,0.00,VWS V14.01,2013-02-20 12:11:00,
2013-02-20 22:12:00,82.9,77.2,29.50,South,180,0.9,1.6,83,0.00,,,0.00,VWS V14.01,2013-02-20 12:12:00,
2013-02-20 22:13:00,82.9,77.2,29.50,South,180,0.0,0.9,83,0.00,,,0.00,VWS V14.01,2013-02-20 12:13:00,
2013-02-20 22:14:00,82.9,77.2,29.50,South,180,0.0,0.0,83,0.00,,,0.00,VWS V14.01,2013-02-20 12:14:00,
2013-02-20 22:15:00,82.9,77.2,29.50,South,180,0.0,0.0,83,0.00,,,0.00,VWS V14.01,2013-02-20 12:15:00,
2013-02-20 22:16:00,82.8,77.4,29.50,South,180,0.0,0.0,84,0.00,,,0.00,VWS V14.01,2013-02-20 12:16:00,
2013-02-20 22:17:00,82.8,77.4,29.50,South,180,0.9,0.9,84,0.00,,,0.00,VWS V14.01,2013-02-20 12:17:00,
2013-02-20 22:18:00,82.9,77.6,29.50,South,180,0.0,0.9,84,0.00,,,0.00,VWS V14.01,2013-02-20 12:18:00,
2013-02-20 22:19:00,82.9,77.6,29.50,South,180,0.0,0.0,84,0.00,,,0.00,VWS V14.01,2013-02-20 12:19:00,
2013-02-20 22:20:00,82.9,77.6,29.50,SSW,202,0.0,0.0,84,0.00,,,0.00,VWS V14.01,2013-02-20 12:20:00,
2013-02-20 22:21:00,82.9,77.6,29.50,SW,225,2.7,2.7,84,0.00,,,0.00,VWS V14.01,2013-02-20 12:21:00,
2013-02-20 22:22:00,82.9,77.6,29.50,SW,225,0.9,2.7,84,0.00,,,0.00,VWS V14.01,2013-02-20 12:22:00,
2013-02-20 22:23:00,82.8,77.1,29.50,SW,225,2.2,2.2,83,0.00,,,0.00,VWS V14.01,2013-02-20 12:23:00,
2013-02-20 22:24:00,82.8,77.1,29.50,SW,225,2.2,2.2,83,0.00,,,0.00,VWS V14.01,2013-02-20 12:24:00,
2013-02-20 22:25:00,82.6,76.9,29.50,South,180,1.3,2.2,83,0.00,,,0.00,VWS V14.01,2013-02-20 12:25:00,
2013-02-20 22:26:00,82.8,77.1,29.50,South,180,1.3,1.3,83,0.00,,,0.00,VWS V14.01,2013-02-20 12:26:00,
2013-02-20 22:27:00,82.8,77.1,29.50,SSW,202,0.0,1.3,83,0.00,,,0.00,VWS V14.01,2013-02-20 12:27:00,
2013-02-20 22:28:00,82.8,77.1,29.50,SSW,202,0.9,0.9,83,0.00,,,0.00,VWS V14.01,2013-02-20 12:28:00,
2013-02-20 22:29:00,82.8,77.1,29.50,SSW,202,1.3,1.3,83,0.00,,,0.00,VWS V14.01,2013-02-20 12:29:00,
2013-02-20 22:30:00,82.6,76.9,29.50,SSW,202,3.1,3.1,83,0.00,,,0.00,VWS V14.01,2013-02-20 12:30:00,
2013-02-20 22:31:00,82.6,76.9,29.50,South,180,2.0,3.1,83,0.00,,,0.00,VWS V14.01,2013-02-20 12:31:00,
2013-02-20 22:32:00,82.6,76.9,29.50,South,180,2.5,2.5,83,0.00,,,0.00,VWS V14.01,2013-02-20 12:32:00,
2013-02-20 22:33:00,82.6,76.9,29.50,South,180,0.0,0.0,83,0.00,,,0.00,VWS V14.01,2013-02-20 12:33:00,
2013-02-20 22:34:00,82.6,76.9,29.50,South,180,0.0,0.0,83,0.00,,,0.00,VWS V14.01,2013-02-20 12:34:00,
2013-02-20 22:35:00,82.6,76.9,29.50,SSW,202,4.7,4.7,83,0.00,,,0.00,VWS V14.01,2013-02-20 12:35:00,
2013-02-20 22:36:00,82.6,76.9,29.50,SSW,202,4.7,4.7,83,0.00,,,0.00,VWS V14.01,2013-02-20 12:36:00,
2013-02-20 22:37:00,82.8,77.4,29.50,SSW,202,2.5,4.7,84,0.00,,,0.00,VWS V14.01,2013-02-20 12:37:00,
2013-02-20 22:38:00,82.8,77.4,29.50,SW,225,2.7,2.7,84,0.00,,,0.00,VWS V14.01,2013-02-20 12:38:00,
2013-02-20 22:39:00,82.8,77.4,29.50,SSE,158,2.7,2.7,84,0.00,,,0.00,VWS V14.01,2013-02-20 12:39:00,
2013-02-20 22:40:00,82.8,77.4,29.50,SSE,158,2.7,2.7,84,0.00,,,0.00,VWS V14.01,2013-02-20 12:40:00,
2013-02-20 22:41:00,82.4,77.1,29.50,South,180,3.1,3.1,84,0.00,,,0.00,VWS V14.01,2013-02-20 12:41:00,
2013-02-20 22:42:00,82.4,77.1,29.50,SSW,202,3.8,4.0,84,0.00,,,0.00,VWS V14.01,2013-02-20 12:42:00,
2013-02-20 22:43:00,82.4,77.1,29.50,SSW,202,3.8,3.8,84,0.00,,,0.00,VWS V14.01,2013-02-20 12:43:00,
2013-02-20 22:44:00,82.4,77.1,29.50,SSW,202,3.8,3.8,84,0.00,,,0.00,VWS V14.01,2013-02-20 12:44:00,
2013-02-20 22:45:00,82.4,77.1,29.50,SSW,202,0.0,3.8,84,0.00,,,0.00,VWS V14.01,2013-02-20 12:45:00,
2013-02-20 22:46:00,82.4,77.1,29.50,South,180,0.9,0.9,84,0.00,,,0.00,VWS V14.01,2013-02-20 12:46:00,
2013-02-20 22:47:00,82.4,77.1,29.50,South,180,0.9,0.9,84,0.00,,,0.00,VWS V14.01,2013-02-20 12:47:00,
2013-02-20 22:48:00,82.4,77.1,29.50,South,180,3.1,3.1,84,0.00,,,0.00,VWS V14.01,2013-02-20 12:48:00,
2013-02-20 22:49:00,82.0,76.7,29.50,South,180,0.0,3.1,84,0.00,,,0.00,VWS V14.01,2013-02-20 12:49:00,
2013-02-20 22:50:00,82.0,76.7,29.50,South,180,1.6,1.6,84,0.00,,,0.00,VWS V14.01,2013-02-20 12:50:00,
2013-02-20 22:51:00,82.0,76.7,29.50,South,180,1.6,1.6,84,0.00,,,0.00,VWS V14.01,2013-02-20 12:51:00,
2013-02-20 22:52:00,82.0,76.7,29.50,SSW,202,0.0,1.6,84,0.00,,,0.00,VWS V14.01,2013-02-20 12:52:00,
2013-02-20 22:53:00,82.2,76.9,29.50,SSW,202,0.0,0.0,84,0.00,,,0.00,VWS V14.01,2013-02-20 12:53:00,
2013-02-20 22:54:00,82.2,76.9,29.50,SSW,202,0.0,0.0,84,0.00,,,0.00,VWS V14.01,2013-02-20 12:54:00,
2013-02-20 22:55:00,82.2,76.9,29.50,SSW,202,0.0,0.0,84,0.00,,,0.00,VWS V14.01,2013-02-20 12:55:00,
2013-02-20 22:56:00,82.2,76.9,29.50,SSW,202,0.0,0.0,84,0.00,,,0.00,VWS V14.01,2013-02-20 12:56:00,
2013-02-20 22:57:00,82.2,76.9,29.50,SSW,202,0.0,0.0,84,0.00,,,0.00,VWS V14.01,2013-02-20 12:57:00,
2013-02-20 22:58:00,82.4,77.1,29.50,SSW,202,0.0,0.0,84,0.00,,,0.00,VWS V14.01,2013-02-20 12:58:00,
2013-02-20 22:59:00,82.4,77.1,29.50,SSW,202,0.0,0.0,84,0.00,,,0.00,VWS V14.01,2013-02-20 12:59:00,
2013-02-20 23:00:00,82.4,77.1,29.50,WNW,292,1.1,1.1,84,0.00,,,0.00,VWS V14.01,2013-02-20 13:00:00,
2013-02-20 23:01:00,82.4,77.1,29.50,WNW,292,0.0,1.1,84,0.00,,,0.00,VWS V14.01,2013-02-20 13:01:00,
2013-02-20 23:02:00,82.2,76.9,29.50,WSW,248,0.0,0.0,84,0.00,,,0.00,VWS V14.01,2013-02-20 13:02:00,
2013-02-20 23:03:00,82.2,76.9,29.50,SW,225,2.0,2.2,84,0.00,,,0.00,VWS V14.01,2013-02-20 13:03:00,
2013-02-20 23:04:00,82.2,76.9,29.50,SW,225,2.0,2.2,84,0.00,,,0.00,VWS V14.01,2013-02-20 13:04:00,
2013-02-20 23:05:00,82.2,76.9,29.50,SSW,202,2.7,2.7,84,0.00,,,0.00,VWS V14.01,2013-02-20 13:05:00,
2013-02-20 23:06:00,82.2,76.9,29.50,SSW,202,3.4,3.4,84,0.00,,,0.00,VWS V14.01,2013-02-20 13:06:00,
2013-02-20 23:07:00,82.2,76.9,29.50,SSW,202,4.3,4.3,84,0.00,,,0.00,VWS V14.01,2013-02-20 13:07:00,
2013-02-20 23:08:00,82.2,76.9,29.50,SSW,202,3.8,3.8,84,0.00,,,0.00,VWS V14.01,2013-02-20 13:08:00,
2013-02-20 23:09:00,82.2,76.9,29.50,SW,225,2.0,3.8,84,0.00,,,0.00,VWS V14.01,2013-02-20 13:09:00,
2013-02-20 23:10:00,82.2,76.9,29.50,SSW,202,1.6,2.0,84,0.00,,,0.00,VWS V14.01,2013-02-20 13:10:00,
2013-02-20 23:11:00,82.2,76.9,29.50,SSW,202,1.6,1.6,84,0.00,,,0.00,VWS V14.01,2013-02-20 13:11:00,
2013-02-20 23:12:00,82.2,76.9,29.50,SSW,202,0.0,1.6,84,0.00,,,0.00,VWS V14.01,2013-02-20 13:12:00,
2013-02-20 23:13:00,82.2,76.9,29.50,SSW,202,2.5,2.5,84,0.00,,,0.00,VWS V14.01,2013-02-20 13:13:00,
2013-02-20 23:14:00,82.2,76.9,29.50,SSW,202,0.0,2.5,84,0.00,,,0.00,VWS V14.01,2013-02-20 13:14:00,
2013-02-20 23:15:00,82.2,76.9,29.50,SSW,202,0.0,0.0,84,0.00,,,0.00,VWS V14.01,2013-02-20 13:15:00,
2013-02-20 23:16:00,82.2,76.9,29.50,SSW,202,0.0,0.0,84,0.00,,,0.00,VWS V14.01,2013-02-20 13:16:00,
2013-02-20 23:17:00,82.2,76.9,29.50,SSW,202,0.0,0.0,84,0.00,,,0.00,VWS V14.01,2013-02-20 13:17:00,
2013-02-20 23:18:00,82.2,76.9,29.50,SSW,202,0.0,0.0,84,0.00,,,0.00,VWS V14.01,2013-02-20 13:18:00,
2013-02-20 23:19:00,82.2,76.9,29.50,SSW,202,0.0,0.0,84,0.00,,,0.00,VWS V14.01,2013-02-20 13:19:00,
2013-02-20 23:20:00,82.2,76.9,29.50,SSW,202,0.0,0.0,84,0.00,,,0.00,VWS V14.01,2013-02-20 13:20:00,
2013-02-20 23:21:00,82.0,77.1,29.50,SSE,158,0.0,0.0,85,0.00,,,0.00,VWS V14.01,2013-02-20 13:21:00,
2013-02-20 23:22:00,82.0,77.1,29.50,SSE,158,1.6,1.6,85,0.00,,,0.00,VWS V14.01,2013-02-20 13:22:00,
2013-02-20 23:23:00,82.0,77.1,29.50,SSE,158,0.0,1.6,85,0.00,,,0.00,VWS V14.01,2013-02-20 13:23:00,
2013-02-20 23:24:00,82.0,77.1,29.50,SSE,158,0.0,1.6,85,0.00,,,0.00,VWS V14.01,2013-02-20 13:24:00,